Wetterdaten: Montag, 28.11.2022
Datum Zeit Temp. Aussen Temp. o. S. Temp +5cm Feuchte Auss Luftdruck Regen Sonnenschein Regendauer Solar Windben Empfang
28.11.2022 00:00 6,7 C 5,6 C 2,2 C 93 % 1012,4 hPa 0,0 l/m 0 min 0 min 0 W/m 22,5 km/h (4 Bft) 97,87 %
28.11.2022 00:02 6,7 C 5,6 C 2,2 C 93 % 1012,4 hPa 0,0 l/m 0 min 0 min 0 W/m 3,2 km/h (1 Bft) 8,33 %
28.11.2022 00:04 6,7 C 5,6 C 2,2 C 93 % 1012,4 hPa 0,0 l/m 0 min 0 min 0 W/m 12,9 km/h (3 Bft) 4,76 %
28.11.2022 00:08 6,7 C 5,6 C 2,2 C 93 % 1012,3 hPa 0,2 l/m 0 min 4 min 0 W/m 22,5 km/h (4 Bft) 98,90 %
28.11.2022 00:10 6,7 C 5,6 C 2,2 C 93 % 1012,3 hPa 0,0 l/m 0 min 2 min 0 W/m 12,9 km/h (3 Bft) 100,00 %
28.11.2022 00:12 6,7 C 5,6 C 2,2 C 93 % 1012,2 hPa 0,0 l/m 0 min 2 min 0 W/m 16,1 km/h (3 Bft) 100,00 %
28.11.2022 00:14 6,7 C 5,6 C 2,2 C 93 % 1012,2 hPa 0,0 l/m 0 min 2 min 0 W/m 25,7 km/h (4 Bft) 97,87 %
28.11.2022 00:16 6,7 C 5,6 C 2,2 C 94 % 1012,2 hPa 0,0 l/m 0 min 2 min 0 W/m 25,7 km/h (4 Bft) 100,00 %
28.11.2022 00:18 6,7 C 5,6 C 2,2 C 94 % 1012,2 hPa 0,0 l/m 0 min 2 min 0 W/m 29,0 km/h (5 Bft) 100,00 %
28.11.2022 00:20 6,7 C 5,6 C 2,2 C 94 % 1012,2 hPa 0,2 l/m 0 min 2 min 0 W/m 19,3 km/h (3 Bft) 97,83 %
28.11.2022 00:22 6,7 C 5,6 C 2,2 C 94 % 1012,1 hPa 0,0 l/m 0 min 2 min 0 W/m 29,0 km/h (5 Bft) 97,87 %
28.11.2022 00:24 6,7 C 5,6 C 2,2 C 94 % 1012,1 hPa 0,0 l/m 0 min 2 min 0 W/m 19,3 km/h (3 Bft) 97,87 %
28.11.2022 00:26 6,7 C 5,6 C 2,2 C 94 % 1012,0 hPa 0,0 l/m 0 min 2 min 0 W/m 19,3 km/h (3 Bft) 95,74 %
28.11.2022 00:28 6,6 C 5,6 C 2,8 C 94 % 1012,0 hPa 0,0 l/m 0 min 2 min 0 W/m 16,1 km/h (3 Bft) 97,87 %
28.11.2022 00:30 6,6 C 5,6 C 2,8 C 94 % 1012,0 hPa 0,0 l/m 0 min 2 min 0 W/m 25,7 km/h (4 Bft) 97,87 %
28.11.2022 00:32 6,6 C 5,6 C 2,8 C 94 % 1012,0 hPa 0,0 l/m 0 min 2 min 0 W/m 32,2 km/h (5 Bft) 97,83 %
28.11.2022 00:34 6,6 C 5,6 C 2,8 C 94 % 1011,9 hPa 0,0 l/m 0 min 2 min 0 W/m 19,3 km/h (3 Bft) 97,87 %
28.11.2022 00:36 6,6 C 5,6 C 2,8 C 94 % 1011,9 hPa 0,0 l/m 0 min 0 min 0 W/m 29,0 km/h (5 Bft) 97,87 %
28.11.2022 00:38 6,6 C 5,6 C 2,8 C 95 % 1011,9 hPa 0,0 l/m 0 min 2 min 0 W/m 29,0 km/h (5 Bft) 97,87 %
28.11.2022 00:40 6,6 C 5,6 C 2,8 C 95 % 1011,9 hPa 0,0 l/m 0 min 2 min 0 W/m 25,7 km/h (4 Bft) 97,87 %
28.11.2022 00:42 6,6 C 5,6 C 2,8 C 95 % 1011,9 hPa 0,0 l/m 0 min 2 min 0 W/m 19,3 km/h (3 Bft) 97,87 %
28.11.2022 00:44 6,6 C 5,6 C 2,8 C 95 % 1011,9 hPa 0,0 l/m 0 min 2 min 0 W/m 25,7 km/h (4 Bft) 97,87 %
28.11.2022 00:46 6,6 C 5,6 C 2,8 C 95 % 1011,9 hPa 0,0 l/m 0 min 2 min 0 W/m 16,1 km/h (3 Bft) 97,87 %
28.11.2022 00:48 6,6 C 5,6 C 2,8 C 95 % 1011,8 hPa 0,0 l/m 0 min 2 min 0 W/m 19,3 km/h (3 Bft) 95,74 %
28.11.2022 00:50 6,6 C 6,1 C 2,8 C 95 % 1011,9 hPa 0,2 l/m 0 min 2 min 0 W/m 19,3 km/h (3 Bft) 97,83 %
28.11.2022 00:52 6,6 C 6,1 C 2,8 C 95 % 1011,8 hPa 0,0 l/m 0 min 2 min 0 W/m 22,5 km/h (4 Bft) 95,74 %
28.11.2022 00:54 6,6 C 6,1 C 2,8 C 95 % 1011,8 hPa 0,0 l/m 0 min 2 min 0 W/m 22,5 km/h (4 Bft) 97,87 %
28.11.2022 00:56 6,6 C 6,1 C 2,8 C 95 % 1011,8 hPa 0,0 l/m 0 min 2 min 0 W/m 19,3 km/h (3 Bft) 97,87 %
28.11.2022 00:58 6,6 C 6,1 C 2,8 C 95 % 1011,8 hPa 0,0 l/m 0 min 0 min 0 W/m 22,5 km/h (4 Bft) 97,87 %
28.11.2022 01:00 6,6 C 6,1 C 2,8 C 95 % 1011,9 hPa 0,0 l/m 0 min 0 min 0 W/m 19,3 km/h (3 Bft) 97,87 %
28.11.2022 01:02 6,6 C 6,1 C 2,8 C 95 % 1011,8 hPa 0,0 l/m 0 min 0 min 0 W/m 29,0 km/h (5 Bft) 97,83 %
28.11.2022 01:04 6,6 C 6,1 C 2,8 C 95 % 1011,7 hPa 0,0 l/m 0 min 0 min 0 W/m 16,1 km/h (3 Bft) 100,00 %
28.11.2022 01:06 6,6 C 6,1 C 2,8 C 95 % 1011,7 hPa 0,0 l/m 0 min 0 min 0 W/m 25,7 km/h (4 Bft) 100,00 %
28.11.2022 01:08 6,6 C 6,1 C 2,8 C 95 % 1011,7 hPa 0,0 l/m 0 min 0 min 0 W/m 16,1 km/h (3 Bft) 100,00 %
28.11.2022 01:10 6,6 C 6,1 C 2,8 C 95 % 1011,7 hPa 0,0 l/m 0 min 0 min 0 W/m 12,9 km/h (3 Bft) 100,00 %
28.11.2022 01:12 6,6 C 6,1 C 2,8 C 95 % 1011,7 hPa 0,0 l/m 0 min 0 min 0 W/m 22,5 km/h (4 Bft) 100,00 %
28.11.2022 01:14 6,6 C 6,1 C 2,8 C 95 % 1011,6 hPa 0,0 l/m 0 min 0 min 0 W/m 19,3 km/h (3 Bft) 100,00 %
28.11.2022 01:16 6,6 C 6,1 C 2,8 C 95 % 1011,6 hPa 0,0 l/m 0 min 0 min 0 W/m 19,3 km/h (3 Bft) 95,74 %
28.11.2022 01:18 6,6 C 6,1 C 2,8 C 95 % 1011,6 hPa 0,0 l/m 0 min 0 min 0 W/m 16,1 km/h (3 Bft) 100,00 %
28.11.2022 01:20 6,6 C 6,1 C 2,8 C 95 % 1011,6 hPa 0,0 l/m 0 min 0 min 0 W/m 16,1 km/h (3 Bft) 100,00 %
28.11.2022 01:22 6,6 C 6,1 C 2,8 C 95 % 1011,6 hPa 0,0 l/m 0 min 0 min 0 W/m 25,7 km/h (4 Bft) 97,87 %
28.11.2022 01:24 6,6 C 6,1 C 2,8 C 95 % 1011,6 hPa 0,0 l/m 0 min 0 min 0 W/m 22,5 km/h (4 Bft) 97,83 %
28.11.2022 01:26 6,6 C 6,1 C 2,8 C 95 % 1011,6 hPa 0,0 l/m 0 min 0 min 0 W/m 19,3 km/h (3 Bft) 91,49 %
28.11.2022 01:28 6,6 C 6,1 C 2,8 C 95 % 1011,6 hPa 0,0 l/m 0 min 0 min 0 W/m 29,0 km/h (5 Bft) 95,74 %
28.11.2022 01:30 6,6 C 6,1 C 2,8 C 95 % 1011,5 hPa 0,0 l/m 0 min 0 min 0 W/m 29,0 km/h (5 Bft) 93,62 %
28.11.2022 01:32 6,6 C 6,1 C 2,8 C 95 % 1011,5 hPa 0,0 l/m 0 min 0 min 0 W/m 25,7 km/h (4 Bft) 91,49 %
28.11.2022 01:34 6,6 C 6,1 C 2,8 C 95 % 1011,5 hPa 0,0 l/m 0 min 0 min 0 W/m 16,1 km/h (3 Bft) 95,74 %
28.11.2022 01:36 6,6 C 6,1 C 2,8 C 95 % 1011,5 hPa 0,0 l/m 0 min 0 min 0 W/m 22,5 km/h (4 Bft) 91,30 %
28.11.2022 01:38 6,6 C 6,1 C 2,8 C 95 % 1011,4 hPa 0,0 l/m 0 min 0 min 0 W/m 19,3 km/h (3 Bft) 97,87 %
28.11.2022 01:40 6,6 C 6,1 C 2,8 C 95 % 1011,4 hPa 0,0 l/m 0 min 0 min 0 W/m 22,5 km/h (4 Bft) 95,74 %
28.11.2022 01:42 6,6 C 6,1 C 2,8 C 95 % 1011,2 hPa 0,0 l/m 0 min 0 min 0 W/m 19,3 km/h (3 Bft) 93,62 %
28.11.2022 01:44 6,6 C 6,1 C 2,8 C 95 % 1011,2 hPa 0,0 l/m 0 min 0 min 0 W/m 12,9 km/h (3 Bft) 93,62 %
28.11.2022 01:46 6,6 C 6,1 C 2,8 C 95 % 1011,2 hPa 0,0 l/m 0 min 0 min 0 W/m 16,1 km/h (3 Bft) 91,49 %
28.11.2022 01:48 6,5 C 6,1 C 2,8 C 95 % 1011,2 hPa 0,0 l/m 0 min 0 min 0 W/m 19,3 km/h (3 Bft) 91,30 %
28.11.2022 01:50 6,5 C 6,1 C 2,8 C 95 % 1011,2 hPa 0,0 l/m 0 min 0 min 0 W/m 25,7 km/h (4 Bft) 95,74 %
28.11.2022 01:52 6,5 C 6,1 C 2,8 C 95 % 1011,2 hPa 0,0 l/m 0 min 0 min 0 W/m 19,3 km/h (3 Bft) 93,62 %
28.11.2022 01:54 6,5 C 6,1 C 2,8 C 95 % 1011,1 hPa 0,0 l/m 0 min 0 min 0 W/m 22,5 km/h (4 Bft) 93,62 %
28.11.2022 01:56 6,5 C 6,1 C 2,8 C 95 % 1011,1 hPa 0,0 l/m 0 min 0 min 0 W/m 19,3 km/h (3 Bft) 97,87 %
28.11.2022 01:58 6,5 C 6,1 C 2,8 C 95 % 1011,1 hPa 0,0 l/m 0 min 0 min 0 W/m 29,0 km/h (5 Bft) 97,87 %
28.11.2022 02:00 6,5 C 6,1 C 2,8 C 95 % 1011,1 hPa 0,0 l/m 0 min 0 min 0 W/m 22,5 km/h (4 Bft) 95,65 %
28.11.2022 02:02 6,5 C 6,1 C 2,8 C 95 % 1011,0 hPa 0,0 l/m 0 min 0 min 0 W/m 16,1 km/h (3 Bft) 97,87 %
28.11.2022 02:04 6,5 C 6,1 C 2,8 C 95 % 1011,1 hPa 0,0 l/m 0 min 0 min 0 W/m 25,7 km/h (4 Bft) 97,87 %
28.11.2022 02:06 6,5 C 6,1 C 2,8 C 95 % 1011,0 hPa 0,0 l/m 0 min 0 min 0 W/m 22,5 km/h (4 Bft) 95,74 %
28.11.2022 02:08 6,6 C 6,1 C 2,8 C 95 % 1011,0 hPa 0,0 l/m 0 min 0 min 0 W/m 12,9 km/h (3 Bft) 95,74 %
28.11.2022 02:10 6,6 C 6,1 C 2,8 C 95 % 1011,0 hPa 0,0 l/m 0 min 0 min 0 W/m 19,3 km/h (3 Bft) 97,87 %
28.11.2022 02:12 6,5 C 6,1 C 2,8 C 95 % 1010,9 hPa 0,0 l/m 0 min 0 min 0 W/m 22,5 km/h (4 Bft) 95,65 %
28.11.2022 02:14 6,6 C 6,1 C 2,8 C 95 % 1011,0 hPa 0,0 l/m 0 min 0 min 0 W/m 29,0 km/h (5 Bft) 95,74 %
28.11.2022 02:16 6,5 C 6,1 C 2,8 C 95 % 1011,0 hPa 0,0 l/m 0 min 2 min 0 W/m 22,5 km/h (4 Bft) 97,87 %
28.11.2022 02:18 6,6 C 6,1 C 2,8 C 95 % 1011,0 hPa 0,0 l/m 0 min 0 min 0 W/m 19,3 km/h (3 Bft) 95,74 %
28.11.2022 02:20 6,6 C 6,1 C 2,8 C 95 % 1011,0 hPa 0,0 l/m 0 min 0 min 0 W/m 16,1 km/h (3 Bft) 97,87 %
28.11.2022 02:22 6,6 C 6,1 C 2,8 C 95 % 1011,0 hPa 0,0 l/m 0 min 0 min 0 W/m 22,5 km/h (4 Bft) 100,00 %
28.11.2022 02:24 6,5 C 6,1 C 2,8 C 95 % 1011,0 hPa 0,0 l/m 0 min 0 min 0 W/m 32,2 km/h (5 Bft) 100,00 %
28.11.2022 02:26 6,5 C 6,1 C 2,8 C 95 % 1011,0 hPa 0,0 l/m 0 min 0 min 0 W/m 29,0 km/h (5 Bft) 100,00 %
28.11.2022 02:28 6,5 C 6,1 C 2,8 C 95 % 1011,1 hPa 0,0 l/m 0 min 0 min 0 W/m 16,1 km/h (3 Bft) 97,87 %
28.11.2022 02:30 6,5 C 6,1 C 2,8 C 95 % 1011,1 hPa 0,0 l/m 0 min 0 min 0 W/m 16,1 km/h (3 Bft) 54,55 %
28.11.2022 02:32 6,5 C 6,1 C 2,8 C 95 % 1011,0 hPa 0,0 l/m 0 min 0 min 0 W/m 22,5 km/h (4 Bft) 97,87 %
28.11.2022 02:34 6,5 C 6,1 C 2,8 C 95 % 1011,1 hPa 0,0 l/m 0 min 0 min 0 W/m 22,5 km/h (4 Bft) 100,00 %
28.11.2022 02:36 6,5 C 6,1 C 2,8 C 95 % 1011,0 hPa 0,0 l/m 0 min 0 min 0 W/m 16,1 km/h (3 Bft) 100,00 %
28.11.2022 02:38 6,6 C 6,1 C 2,8 C 95 % 1011,0 hPa 0,0 l/m 0 min 0 min 0 W/m 25,7 km/h (4 Bft) 97,87 %
28.11.2022 02:40 6,6 C 6,1 C 2,8 C 95 % 1011,0 hPa 0,0 l/m 0 min 0 min 0 W/m 19,3 km/h (3 Bft) 97,87 %
28.11.2022 02:42 6,6 C 6,1 C 2,8 C 95 % 1011,0 hPa 0,0 l/m 0 min 0 min 0 W/m 22,5 km/h (4 Bft) 95,74 %
28.11.2022 02:44 6,6 C 6,1 C 2,8 C 95 % 1011,0 hPa 0,0 l/m 0 min 0 min 0 W/m 16,1 km/h (3 Bft) 95,74 %
28.11.2022 02:46 6,6 C 6,1 C 2,8 C 95 % 1011,1 hPa 0,0 l/m 0 min 0 min 0 W/m 22,5 km/h (4 Bft) 97,83 %
28.11.2022 02:48 6,6 C 6,1 C 2,8 C 95 % 1011,1 hPa 0,0 l/m 0 min 0 min 0 W/m 29,0 km/h (5 Bft) 97,87 %
28.11.2022 02:50 6,6 C 6,1 C 2,8 C 95 % 1011,1 hPa 0,0 l/m 0 min 0 min 0 W/m 32,2 km/h (5 Bft) 97,87 %
28.11.2022 02:52 6,6 C 6,1 C 2,8 C 95 % 1011,0 hPa 0,0 l/m 0 min 0 min 0 W/m 25,7 km/h (4 Bft) 97,87 %
28.11.2022 02:54 6,6 C 6,1 C 2,8 C 95 % 1011,0 hPa 0,0 l/m 0 min 0 min 0 W/m 12,9 km/h (3 Bft) 97,87 %
28.11.2022 02:56 6,6 C 6,1 C 2,8 C 95 % 1011,0 hPa 0,0 l/m 0 min 0 min 0 W/m 16,1 km/h (3 Bft) 97,87 %
28.11.2022 02:58 6,6 C 6,1 C 2,8 C 95 % 1011,1 hPa 0,0 l/m 0 min 0 min 0 W/m 22,5 km/h (4 Bft) 97,83 %
28.11.2022 03:00 6,6 C 6,1 C 2,8 C 95 % 1011,1 hPa 0,0 l/m 0 min 0 min 0 W/m 22,5 km/h (4 Bft) 97,87 %
28.11.2022 03:02 6,6 C 6,1 C 2,8 C 95 % 1011,1 hPa 0,0 l/m 0 min 0 min 0 W/m 25,7 km/h (4 Bft) 95,74 %
28.11.2022 03:04 6,6 C 6,1 C 2,8 C 95 % 1011,2 hPa 0,0 l/m 0 min 0 min 0 W/m 16,1 km/h (3 Bft) 97,87 %
28.11.2022 03:06 6,6 C 6,1 C 2,8 C 95 % 1011,1 hPa 0,0 l/m 0 min 0 min 0 W/m 22,5 km/h (4 Bft) 95,74 %
28.11.2022 03:08 6,6 C 6,1 C 2,8 C 95 % 1011,2 hPa 0,0 l/m 0 min 0 min 0 W/m 22,5 km/h (4 Bft) 93,62 %
28.11.2022 03:10 6,6 C 6,1 C 2,8 C 95 % 1011,2 hPa 0,0 l/m 0 min 0 min 0 W/m 22,5 km/h (4 Bft) 97,83 %
28.11.2022 03:12 6,6 C 6,1 C 2,8 C 95 % 1011,2 hPa 0,0 l/m 0 min 0 min 0 W/m 16,1 km/h (3 Bft) 97,87 %
28.11.2022 03:14 6,6 C 6,1 C 2,8 C 95 % 1011,2 hPa 0,0 l/m 0 min 0 min 0 W/m 22,5 km/h (4 Bft) 95,74 %
28.11.2022 03:16 6,6 C 6,1 C 2,8 C 95 % 1011,2 hPa 0,0 l/m 0 min 0 min 0 W/m 22,5 km/h (4 Bft) 95,74 %
28.11.2022 03:18 6,6 C 6,1 C 2,8 C 95 % 1011,1 hPa 0,0 l/m 0 min 0 min 0 W/m 16,1 km/h (3 Bft) 95,74 %
28.11.2022 03:20 6,6 C 6,1 C 2,8 C 95 % 1011,1 hPa 0,0 l/m 0 min 0 min 0 W/m 16,1 km/h (3 Bft) 95,74 %
28.11.2022 03:22 6,6 C 6,1 C 2,8 C 95 % 1011,2 hPa 0,0 l/m 0 min 2 min 0 W/m 19,3 km/h (3 Bft) 97,83 %
28.11.2022 03:24 6,6 C 6,1 C 2,8 C 95 % 1011,1 hPa 0,0 l/m 0 min 2 min 0 W/m 22,5 km/h (4 Bft) 97,87 %
28.11.2022 03:26 6,6 C 6,1 C 2,8 C 95 % 1011,1 hPa 0,0 l/m 0 min 2 min 0 W/m 16,1 km/h (3 Bft) 97,87 %
28.11.2022 03:28 6,6 C 6,1 C 2,8 C 95 % 1011,1 hPa 0,0 l/m 0 min 2 min 0 W/m 19,3 km/h (3 Bft) 97,87 %
28.11.2022 03:30 6,6 C 6,1 C 2,8 C 95 % 1011,0 hPa 0,0 l/m 0 min 2 min 0 W/m 19,3 km/h (3 Bft) 95,74 %
28.11.2022 03:32 6,6 C 5,6 C 2,8 C 95 % 1011,0 hPa 0,0 l/m 0 min 2 min 0 W/m 19,3 km/h (3 Bft) 97,83 %
28.11.2022 03:34 6,6 C 5,6 C 2,8 C 95 % 1011,0 hPa 0,0 l/m 0 min 2 min 0 W/m 12,9 km/h (3 Bft) 97,87 %
28.11.2022 03:36 6,6 C 5,6 C 2,8 C 95 % 1010,9 hPa 0,0 l/m 0 min 2 min 0 W/m 16,1 km/h (3 Bft) 97,87 %
28.11.2022 03:38 6,6 C 5,6 C 2,8 C 95 % 1010,9 hPa 0,2 l/m 0 min 2 min 0 W/m 22,5 km/h (4 Bft) 95,74 %
28.11.2022 03:40 6,6 C 5,6 C 2,8 C 95 % 1010,9 hPa 0,0 l/m 0 min 2 min 0 W/m 16,1 km/h (3 Bft) 97,87 %
28.11.2022 03:42 6,5 C 5,6 C 2,8 C 95 % 1010,9 hPa 0,0 l/m 0 min 2 min 0 W/m 12,9 km/h (3 Bft) 95,74 %
28.11.2022 03:44 6,5 C 5,6 C 2,8 C 95 % 1010,9 hPa 0,2 l/m 0 min 2 min 0 W/m 12,9 km/h (3 Bft) 61,70 %
28.11.2022 03:46 6,5 C 5,6 C 2,8 C 95 % 1010,8 hPa 0,0 l/m 0 min 2 min 0 W/m 16,1 km/h (3 Bft) 91,89 %
28.11.2022 03:48 6,5 C 5,6 C 2,8 C 95 % 1010,9 hPa 0,0 l/m 0 min 2 min 0 W/m 12,9 km/h (3 Bft) 100,00 %
28.11.2022 03:50 6,5 C 5,6 C 2,8 C 95 % 1010,9 hPa 0,0 l/m 0 min 2 min 0 W/m 19,3 km/h (3 Bft) 100,00 %
28.11.2022 03:52 6,5 C 5,6 C 2,8 C 96 % 1010,9 hPa 0,0 l/m 0 min 2 min 0 W/m 9,7 km/h (2 Bft) 100,00 %
28.11.2022 03:54 6,5 C 5,6 C 2,8 C 96 % 1010,8 hPa 0,0 l/m 0 min 2 min 0 W/m 12,9 km/h (3 Bft) 97,87 %
28.11.2022 03:56 6,5 C 5,6 C 2,8 C 96 % 1010,8 hPa 0,2 l/m 0 min 2 min 0 W/m 12,9 km/h (3 Bft) 100,00 %
28.11.2022 03:58 6,5 C 5,6 C 2,8 C 96 % 1010,7 hPa 0,0 l/m 0 min 2 min 0 W/m 16,1 km/h (3 Bft) 100,00 %
28.11.2022 04:00 6,5 C 5,6 C 2,8 C 96 % 1010,8 hPa 0,0 l/m 0 min 0 min 0 W/m 16,1 km/h (3 Bft) 100,00 %
28.11.2022 04:02 6,4 C 5,6 C 2,8 C 96 % 1010,8 hPa 0,0 l/m 0 min 2 min 0 W/m 12,9 km/h (3 Bft) 100,00 %
28.11.2022 04:04 6,4 C 5,6 C 2,8 C 96 % 1010,8 hPa 0,0 l/m 0 min 2 min 0 W/m 29,0 km/h (5 Bft) 95,74 %
28.11.2022 04:06 6,4 C 5,6 C 2,8 C 96 % 1010,8 hPa 0,0 l/m 0 min 2 min 0 W/m 19,3 km/h (3 Bft) 100,00 %
28.11.2022 04:08 6,4 C 5,6 C 2,8 C 96 % 1010,8 hPa 0,0 l/m 0 min 2 min 0 W/m 16,1 km/h (3 Bft) 93,48 %
28.11.2022 04:10 6,4 C 5,6 C 2,8 C 96 % 1010,8 hPa 0,0 l/m 0 min 2 min 0 W/m 12,9 km/h (3 Bft) 97,87 %
28.11.2022 04:12 6,4 C 5,6 C 2,8 C 96 % 1010,8 hPa 0,0 l/m 0 min 2 min 0 W/m 16,1 km/h (3 Bft) 100,00 %
28.11.2022 04:14 6,4 C 5,6 C 2,8 C 96 % 1010,7 hPa 0,2 l/m 0 min 2 min 0 W/m 16,1 km/h (3 Bft) 97,87 %
28.11.2022 04:16 6,4 C 5,6 C 2,8 C 96 % 1010,7 hPa 0,0 l/m 0 min 2 min 0 W/m 16,1 km/h (3 Bft) 100,00 %
28.11.2022 04:18 6,4 C 5,6 C 2,8 C 96 % 1010,7 hPa 0,0 l/m 0 min 2 min 0 W/m 29,0 km/h (5 Bft) 100,00 %
28.11.2022 04:20 6,4 C 5,6 C 2,8 C 96 % 1010,6 hPa 0,0 l/m 0 min 2 min 0 W/m 16,1 km/h (3 Bft) 100,00 %
28.11.2022 04:22 6,4 C 5,6 C 2,8 C 96 % 1010,7 hPa 0,0 l/m 0 min 2 min 0 W/m 16,1 km/h (3 Bft) 97,87 %
28.11.2022 04:24 6,4 C 5,6 C 2,8 C 96 % 1010,7 hPa 0,0 l/m 0 min 2 min 0 W/m 19,3 km/h (3 Bft) 100,00 %
28.11.2022 04:26 6,3 C 5,6 C 2,8 C 96 % 1010,7 hPa 0,0 l/m 0 min 2 min 0 W/m 16,1 km/h (3 Bft) 100,00 %
28.11.2022 04:28 6,3 C 5,6 C 2,8 C 96 % 1010,6 hPa 0,0 l/m 0 min 2 min 0 W/m 9,7 km/h (2 Bft) 100,00 %
28.11.2022 04:30 6,3 C 5,6 C 2,8 C 96 % 1010,7 hPa 0,0 l/m 0 min 2 min 0 W/m 12,9 km/h (3 Bft) 100,00 %
28.11.2022 04:32 6,3 C 5,6 C 2,8 C 96 % 1010,7 hPa 0,2 l/m 0 min 2 min 0 W/m 6,4 km/h (2 Bft) 100,00 %
28.11.2022 04:34 6,3 C 5,6 C 2,8 C 96 % 1010,7 hPa 0,0 l/m 0 min 2 min 0 W/m 12,9 km/h (3 Bft) 97,87 %
28.11.2022 04:36 6,3 C 5,6 C 2,8 C 96 % 1010,7 hPa 0,2 l/m 0 min 2 min 0 W/m 16,1 km/h (3 Bft) 97,87 %
28.11.2022 04:38 6,3 C 5,6 C 2,8 C 96 % 1010,7 hPa 0,0 l/m 0 min 2 min 0 W/m 9,7 km/h (2 Bft) 97,87 %
28.11.2022 04:40 6,3 C 5,6 C 2,8 C 96 % 1010,7 hPa 0,0 l/m 0 min 2 min 0 W/m 16,1 km/h (3 Bft) 97,87 %
28.11.2022 04:42 6,3 C 5,6 C 2,8 C 96 % 1010,7 hPa 0,0 l/m 0 min 2 min 0 W/m 19,3 km/h (3 Bft) 97,83 %
28.11.2022 04:44 6,3 C 5,6 C 2,8 C 96 % 1010,7 hPa 0,0 l/m 0 min 2 min 0 W/m 12,9 km/h (3 Bft) 97,87 %
28.11.2022 04:46 6,3 C 5,6 C 2,8 C 96 % 1010,8 hPa 0,0 l/m 0 min 2 min 0 W/m 16,1 km/h (3 Bft) 95,74 %
28.11.2022 04:48 6,3 C 5,6 C 2,8 C 96 % 1010,7 hPa 0,0 l/m 0 min 2 min 0 W/m 16,1 km/h (3 Bft) 95,74 %
28.11.2022 04:50 6,3 C 5,6 C 2,8 C 96 % 1010,7 hPa 0,2 l/m 0 min 2 min 0 W/m 6,4 km/h (2 Bft) 93,62 %
28.11.2022 04:52 6,3 C 5,6 C 2,8 C 97 % 1010,8 hPa 0,0 l/m 0 min 2 min 0 W/m 12,9 km/h (3 Bft) 95,74 %
28.11.2022 04:54 6,3 C 5,6 C 2,8 C 97 % 1010,7 hPa 0,0 l/m 0 min 2 min 0 W/m 6,4 km/h (2 Bft) 97,83 %
28.11.2022 04:56 6,3 C 5,6 C 2,8 C 97 % 1010,7 hPa 0,2 l/m 0 min 2 min 0 W/m 3,2 km/h (1 Bft) 95,74 %
28.11.2022 04:58 6,3 C 5,6 C 2,8 C 97 % 1010,7 hPa 0,0 l/m 0 min 2 min 0 W/m 3,2 km/h (1 Bft) 48,72 %
28.11.2022 05:00 6,3 C 5,6 C 2,8 C 97 % 1010,7 hPa 0,0 l/m 0 min 2 min 0 W/m 6,4 km/h (2 Bft) 93,62 %
28.11.2022 05:02 6,3 C 5,6 C 2,8 C 97 % 1010,7 hPa 0,0 l/m 0 min 2 min 0 W/m 6,4 km/h (2 Bft) 91,49 %
28.11.2022 05:04 6,3 C 5,6 C 2,8 C 97 % 1010,6 hPa 0,0 l/m 0 min 2 min 0 W/m 6,4 km/h (2 Bft) 97,87 %
28.11.2022 05:06 6,3 C 5,6 C 2,8 C 97 % 1010,6 hPa 0,0 l/m 0 min 2 min 0 W/m 12,9 km/h (3 Bft) 97,83 %
28.11.2022 05:08 6,3 C 5,6 C 2,8 C 97 % 1010,6 hPa 0,0 l/m 0 min 2 min 0 W/m 12,9 km/h (3 Bft) 91,49 %
28.11.2022 05:13 6,3 C 5,6 C 2,8 C 97 % 1010,7 hPa 0,2 l/m 0 min 5 min 0 W/m 12,9 km/h (3 Bft) 95,24 %
28.11.2022 05:14 6,3 C 5,6 C 2,8 C 97 % 1010,7 hPa 0,0 l/m 0 min 1 min 0 W/m 12,9 km/h (3 Bft) 100,00 %
28.11.2022 05:16 6,3 C 5,6 C 2,8 C 97 % 1010,7 hPa 0,0 l/m 0 min 2 min 0 W/m 12,9 km/h (3 Bft) 97,87 %
28.11.2022 05:18 6,3 C 5,6 C 2,8 C 97 % 1010,7 hPa 0,0 l/m 0 min 2 min 0 W/m 12,9 km/h (3 Bft) 93,48 %
28.11.2022 05:20 6,3 C 5,6 C 2,8 C 97 % 1010,7 hPa 0,0 l/m 0 min 2 min 0 W/m 6,4 km/h (2 Bft) 95,74 %
28.11.2022 05:22 6,2 C 5,6 C 2,8 C 97 % 1010,7 hPa 0,0 l/m 0 min 2 min 0 W/m 6,4 km/h (2 Bft) 95,74 %
28.11.2022 05:24 6,3 C 5,6 C 2,8 C 97 % 1010,7 hPa 0,0 l/m 0 min 2 min 0 W/m 12,9 km/h (3 Bft) 100,00 %
28.11.2022 05:26 6,2 C 5,6 C 2,8 C 97 % 1010,7 hPa 0,0 l/m 0 min 2 min 0 W/m 12,9 km/h (3 Bft) 95,74 %
28.11.2022 05:28 6,2 C 5,6 C 2,8 C 97 % 1010,7 hPa 0,0 l/m 0 min 0 min 0 W/m 6,4 km/h (2 Bft) 93,62 %
28.11.2022 05:30 6,2 C 5,6 C 2,8 C 97 % 1010,8 hPa 0,0 l/m 0 min 0 min 0 W/m 16,1 km/h (3 Bft) 95,65 %
28.11.2022 05:32 6,3 C 5,6 C 2,8 C 97 % 1010,8 hPa 0,0 l/m 0 min 0 min 0 W/m 16,1 km/h (3 Bft) 95,74 %
28.11.2022 05:34 6,2 C 5,6 C 2,8 C 97 % 1010,9 hPa 0,0 l/m 0 min 0 min 0 W/m 19,3 km/h (3 Bft) 95,74 %
28.11.2022 05:36 6,2 C 5,6 C 2,8 C 97 % 1010,9 hPa 0,2 l/m 0 min 0 min 0 W/m 19,3 km/h (3 Bft) 95,74 %
28.11.2022 05:38 6,2 C 5,6 C 2,8 C 97 % 1010,9 hPa 0,0 l/m 0 min 0 min 0 W/m 16,1 km/h (3 Bft) 95,74 %
28.11.2022 05:40 6,2 C 5,6 C 2,8 C 97 % 1011,0 hPa 0,0 l/m 0 min 2 min 0 W/m 22,5 km/h (4 Bft) 100,00 %
28.11.2022 05:42 6,2 C 5,6 C 2,8 C 97 % 1011,0 hPa 0,0 l/m 0 min 2 min 0 W/m 19,3 km/h (3 Bft) 100,00 %
28.11.2022 05:44 6,2 C 5,6 C 2,8 C 97 % 1010,9 hPa 0,0 l/m 0 min 2 min 0 W/m 12,9 km/h (3 Bft) 100,00 %
28.11.2022 05:46 6,2 C 5,6 C 2,8 C 97 % 1010,9 hPa 0,0 l/m 0 min 2 min 0 W/m 16,1 km/h (3 Bft) 97,87 %
28.11.2022 05:48 6,2 C 5,6 C 2,8 C 97 % 1010,9 hPa 0,0 l/m 0 min 2 min 0 W/m 16,1 km/h (3 Bft) 100,00 %
28.11.2022 05:50 6,2 C 5,6 C 2,8 C 97 % 1010,9 hPa 0,0 l/m 0 min 2 min 0 W/m 16,1 km/h (3 Bft) 100,00 %
28.11.2022 05:52 6,2 C 5,6 C 2,8 C 97 % 1010,9 hPa 0,0 l/m 0 min 2 min 0 W/m 12,9 km/h (3 Bft) 100,00 %
28.11.2022 05:54 6,2 C 5,6 C 2,8 C 97 % 1010,9 hPa 0,0 l/m 0 min 2 min 0 W/m 12,9 km/h (3 Bft) 100,00 %
28.11.2022 05:56 6,2 C 5,6 C 2,8 C 97 % 1010,9 hPa 0,0 l/m 0 min 2 min 0 W/m 12,9 km/h (3 Bft) 100,00 %
28.11.2022 05:58 6,2 C 5,6 C 2,8 C 97 % 1010,8 hPa 0,0 l/m 0 min 2 min 0 W/m 12,9 km/h (3 Bft) 100,00 %
28.11.2022 06:00 6,2 C 5,6 C 2,8 C 97 % 1010,9 hPa 0,2 l/m 0 min 2 min 0 W/m 12,9 km/h (3 Bft) 100,00 %
28.11.2022 06:02 6,2 C 5,6 C 2,8 C 97 % 1010,8 hPa 0,0 l/m 0 min 2 min 0 W/m 12,9 km/h (3 Bft) 97,87 %
28.11.2022 06:04 6,2 C 5,6 C 2,8 C 97 % 1010,9 hPa 0,0 l/m 0 min 2 min 0 W/m 12,9 km/h (3 Bft) 100,00 %
28.11.2022 06:08 6,2 C 5,6 C 2,8 C 97 % 1010,9 hPa 0,0 l/m 0 min 4 min 0 W/m 16,1 km/h (3 Bft) 98,94 %
28.11.2022 06:10 6,2 C 5,6 C 2,8 C 97 % 1010,8 hPa 0,2 l/m 0 min 2 min 0 W/m 12,9 km/h (3 Bft) 100,00 %
28.11.2022 06:12 6,1 C 5,6 C 2,8 C 97 % 1010,8 hPa 0,0 l/m 0 min 2 min 0 W/m 6,4 km/h (2 Bft) 100,00 %
28.11.2022 06:14 6,1 C 5,6 C 2,8 C 97 % 1010,9 hPa 0,0 l/m 0 min 2 min 0 W/m 12,9 km/h (3 Bft) 100,00 %
28.11.2022 06:16 6,1 C 5,6 C 2,8 C 97 % 1010,8 hPa 0,0 l/m 0 min 2 min 0 W/m 12,9 km/h (3 Bft) 97,67 %
28.11.2022 06:18 6,1 C 5,6 C 2,8 C 97 % 1010,9 hPa 0,0 l/m 0 min 2 min 0 W/m 19,3 km/h (3 Bft) 100,00 %
28.11.2022 06:20 6,1 C 5,6 C 2,8 C 97 % 1010,7 hPa 0,0 l/m 0 min 2 min 0 W/m 12,9 km/h (3 Bft) 100,00 %
28.11.2022 06:22 6,1 C 5,6 C 2,8 C 97 % 1010,8 hPa 0,0 l/m 0 min 2 min 0 W/m 6,4 km/h (2 Bft) 97,83 %
28.11.2022 06:24 6,1 C 5,6 C 2,8 C 97 % 1010,7 hPa 0,0 l/m 0 min 2 min 0 W/m 16,1 km/h (3 Bft) 100,00 %
28.11.2022 06:26 6,1 C 5,6 C 2,8 C 97 % 1010,8 hPa 0,0 l/m 0 min 2 min 0 W/m 19,3 km/h (3 Bft) 100,00 %
28.11.2022 06:28 6,1 C 5,6 C 2,8 C 97 % 1010,8 hPa 0,2 l/m 0 min 2 min 0 W/m 16,1 km/h (3 Bft) 100,00 %
28.11.2022 06:30 6,1 C 5,6 C 2,8 C 97 % 1010,7 hPa 0,0 l/m 0 min 2 min 0 W/m 9,7 km/h (2 Bft) 100,00 %
28.11.2022 06:32 6,1 C 5,6 C 2,8 C 97 % 1010,7 hPa 0,0 l/m 0 min 2 min 0 W/m 6,4 km/h (2 Bft) 100,00 %
28.11.2022 06:34 6,1 C 5,6 C 2,8 C 97 % 1010,7 hPa 0,0 l/m 0 min 2 min 0 W/m 16,1 km/h (3 Bft) 100,00 %
28.11.2022 06:36 6,1 C 5,6 C 2,8 C 97 % 1010,7 hPa 0,0 l/m 0 min 0 min 0 W/m 16,1 km/h (3 Bft) 100,00 %
28.11.2022 06:38 6,1 C 5,6 C 2,8 C 97 % 1010,7 hPa 0,2 l/m 0 min 2 min 0 W/m 6,4 km/h (2 Bft) 97,87 %
28.11.2022 06:40 6,1 C 5,6 C 2,8 C 97 % 1010,8 hPa 0,0 l/m 0 min 0 min 0 W/m 22,5 km/h (4 Bft) 97,67 %
28.11.2022 06:42 6,1 C 5,6 C 2,8 C 97 % 1010,7 hPa 0,0 l/m 0 min 0 min 0 W/m 16,1 km/h (3 Bft) 100,00 %
28.11.2022 06:44 6,1 C 5,6 C 2,8 C 97 % 1010,7 hPa 0,0 l/m 0 min 2 min 0 W/m 16,1 km/h (3 Bft) 98,00 %
28.11.2022 06:46 6,1 C 5,6 C 2,8 C 97 % 1010,6 hPa 0,0 l/m 0 min 0 min 0 W/m 19,3 km/h (3 Bft) 100,00 %
28.11.2022 06:48 6,1 C 5,6 C 2,8 C 97 % 1010,7 hPa 0,0 l/m 0 min 0 min 0 W/m 19,3 km/h (3 Bft) 97,87 %
28.11.2022 06:50 6,0 C 5,6 C 2,8 C 97 % 1010,7 hPa 0,0 l/m 0 min 2 min 0 W/m 12,9 km/h (3 Bft) 97,87 %
28.11.2022 06:52 6,0 C 5,6 C 2,8 C 97 % 1010,7 hPa 0,0 l/m 0 min 2 min 0 W/m 16,1 km/h (3 Bft) 100,00 %
28.11.2022 06:54 6,1 C 5,6 C 2,8 C 97 % 1010,6 hPa 0,0 l/m 0 min 0 min 0 W/m 6,4 km/h (2 Bft) 95,45 %
28.11.2022 06:56 6,0 C 5,6 C 2,8 C 97 % 1010,7 hPa 0,0 l/m 0 min 0 min 0 W/m 19,3 km/h (3 Bft) 100,00 %
28.11.2022 06:58 6,0 C 5,6 C 2,8 C 97 % 1010,7 hPa 0,0 l/m 0 min 0 min 0 W/m 22,5 km/h (4 Bft) 97,92 %
28.11.2022 07:00 6,0 C 5,6 C 2,8 C 97 % 1010,7 hPa 0,0 l/m 0 min 0 min 0 W/m 19,3 km/h (3 Bft) 97,87 %
28.11.2022 07:02 6,1 C 5,6 C 2,8 C 97 % 1010,7 hPa 0,0 l/m 0 min 0 min 0 W/m 19,3 km/h (3 Bft) 97,67 %
28.11.2022 07:04 6,1 C 5,6 C 2,8 C 97 % 1010,6 hPa 0,0 l/m 0 min 0 min 0 W/m 12,9 km/h (3 Bft) 98,04 %
28.11.2022 07:06 6,1 C 5,6 C 2,8 C 97 % 1010,6 hPa 0,0 l/m 0 min 0 min 0 W/m 12,9 km/h (3 Bft) 95,74 %
28.11.2022 07:08 6,1 C 5,6 C 2,8 C 97 % 1010,5 hPa 0,0 l/m 0 min 0 min 0 W/m 9,7 km/h (2 Bft) 95,65 %
28.11.2022 07:10 6,1 C 5,6 C 2,8 C 97 % 1010,5 hPa 0,0 l/m 0 min 0 min 0 W/m 16,1 km/h (3 Bft) 97,87 %
28.11.2022 07:12 6,1 C 5,6 C 2,8 C 97 % 1010,5 hPa 0,0 l/m 0 min 0 min 0 W/m 19,3 km/h (3 Bft) 97,87 %
28.11.2022 07:14 6,1 C 5,6 C 2,8 C 97 % 1010,4 hPa 0,0 l/m 0 min 0 min 0 W/m 6,4 km/h (2 Bft) 95,92 %
28.11.2022 07:16 6,1 C 5,6 C 2,8 C 97 % 1010,4 hPa 0,0 l/m 0 min 0 min 0 W/m 19,3 km/h (3 Bft) 95,74 %
28.11.2022 07:18 6,1 C 5,6 C 2,8 C 97 % 1010,3 hPa 0,0 l/m 0 min 0 min 0 W/m 9,7 km/h (2 Bft) 93,62 %
28.11.2022 07:20 6,1 C 5,6 C 2,8 C 97 % 1010,3 hPa 0,0 l/m 0 min 0 min 0 W/m 12,9 km/h (3 Bft) 95,12 %
28.11.2022 07:22 6,1 C 5,6 C 2,8 C 97 % 1010,4 hPa 0,0 l/m 0 min 0 min 0 W/m 6,4 km/h (2 Bft) 57,45 %
28.11.2022 07:24 6,1 C 5,6 C 2,8 C 97 % 1010,3 hPa 0,0 l/m 0 min 0 min 0 W/m 9,7 km/h (2 Bft) 90,48 %
28.11.2022 07:26 6,1 C 5,6 C 2,8 C 97 % 1010,4 hPa 0,0 l/m 0 min 0 min 0 W/m 16,1 km/h (3 Bft) 95,92 %
28.11.2022 07:28 6,1 C 5,6 C 2,8 C 97 % 1010,4 hPa 0,0 l/m 0 min 0 min 0 W/m 6,4 km/h (2 Bft) 93,62 %
28.11.2022 07:30 6,0 C 5,6 C 2,8 C 97 % 1010,4 hPa 0,0 l/m 0 min 0 min 0 W/m 12,9 km/h (3 Bft) 95,74 %
28.11.2022 07:32 6,0 C 5,6 C 2,8 C 97 % 1010,4 hPa 0,0 l/m 0 min 0 min 0 W/m 16,1 km/h (3 Bft) 95,74 %
28.11.2022 07:34 6,0 C 5,6 C 2,8 C 97 % 1010,5 hPa 0,0 l/m 0 min 0 min 0 W/m 6,4 km/h (2 Bft) 95,74 %
28.11.2022 07:36 6,1 C 5,6 C 2,8 C 97 % 1010,5 hPa 0,0 l/m 0 min 0 min 0 W/m 6,4 km/h (2 Bft) 95,74 %
28.11.2022 07:38 6,0 C 5,6 C 2,8 C 97 % 1010,5 hPa 0,0 l/m 0 min 0 min 0 W/m 12,9 km/h (3 Bft) 93,62 %
28.11.2022 07:40 6,0 C 5,6 C 2,8 C 97 % 1010,5 hPa 0,0 l/m 0 min 0 min 0 W/m 6,4 km/h (2 Bft) 95,92 %
28.11.2022 07:42 6,0 C 5,6 C 2,8 C 97 % 1010,6 hPa 0,0 l/m 0 min 0 min 0 W/m 12,9 km/h (3 Bft) 95,74 %
28.11.2022 07:44 6,0 C 5,6 C 2,8 C 98 % 1010,5 hPa 0,0 l/m 0 min 0 min 0 W/m 19,3 km/h (3 Bft) 94,29 %
28.11.2022 07:46 6,0 C 5,6 C 2,8 C 98 % 1010,5 hPa 0,0 l/m 0 min 0 min 0 W/m 6,4 km/h (2 Bft) 96,23 %
28.11.2022 07:48 6,0 C 5,6 C 2,8 C 98 % 1010,5 hPa 0,0 l/m 0 min 0 min 0 W/m 16,1 km/h (3 Bft) 96,00 %
28.11.2022 07:50 6,0 C 5,6 C 2,8 C 98 % 1010,5 hPa 0,0 l/m 0 min 0 min 0 W/m 3,2 km/h (1 Bft) 95,92 %
28.11.2022 07:52 6,0 C 5,6 C 2,8 C 98 % 1010,6 hPa 0,0 l/m 0 min 0 min 0 W/m 16,1 km/h (3 Bft) 94,29 %
28.11.2022 07:54 6,0 C 5,6 C 2,8 C 98 % 1010,6 hPa 0,0 l/m 0 min 0 min 0 W/m 12,9 km/h (3 Bft) 96,23 %
28.11.2022 07:56 6,0 C 5,6 C 2,8 C 98 % 1010,6 hPa 0,0 l/m 0 min 0 min 0 W/m 12,9 km/h (3 Bft) 93,62 %
28.11.2022 07:58 6,0 C 5,6 C 2,8 C 98 % 1010,6 hPa 0,0 l/m 0 min 0 min 0 W/m 16,1 km/h (3 Bft) 97,87 %
28.11.2022 08:00 6,0 C 5,6 C 2,8 C 98 % 1010,6 hPa 0,0 l/m 0 min 0 min 0 W/m 6,4 km/h (2 Bft) 97,87 %
28.11.2022 08:02 6,0 C 5,6 C 2,8 C 98 % 1010,6 hPa 0,0 l/m 0 min 0 min 0 W/m 9,7 km/h (2 Bft) 97,87 %
28.11.2022 08:04 6,0 C 5,6 C 2,8 C 98 % 1010,7 hPa 0,0 l/m 0 min 0 min 0 W/m 6,4 km/h (2 Bft) 98,00 %
28.11.2022 08:06 6,0 C 5,6 C 2,8 C 98 % 1010,7 hPa 0,0 l/m 0 min 0 min 0 W/m 3,2 km/h (1 Bft) 97,96 %
28.11.2022 08:08 6,0 C 5,6 C 2,8 C 98 % 1010,7 hPa 0,0 l/m 0 min 0 min 0 W/m 6,4 km/h (2 Bft) 97,87 %
28.11.2022 08:10 6,0 C 5,6 C 2,8 C 98 % 1010,7 hPa 0,0 l/m 0 min 0 min 0 W/m 12,9 km/h (3 Bft) 95,74 %
28.11.2022 08:12 6,0 C 5,6 C 2,8 C 98 % 1010,7 hPa 0,0 l/m 0 min 0 min 0 W/m 6,4 km/h (2 Bft) 100,00 %
28.11.2022 08:14 6,0 C 5,6 C 2,8 C 98 % 1010,6 hPa 0,0 l/m 0 min 0 min 0 W/m 12,9 km/h (3 Bft) 97,87 %
28.11.2022 08:16 6,0 C 5,6 C 2,8 C 98 % 1010,7 hPa 0,0 l/m 0 min 0 min 0 W/m 6,4 km/h (2 Bft) 95,65 %
28.11.2022 08:18 6,0 C 5,6 C 2,8 C 98 % 1010,6 hPa 0,0 l/m 0 min 0 min 0 W/m 6,4 km/h (2 Bft) 98,11 %
28.11.2022 08:20 6,0 C 5,6 C 2,8 C 98 % 1010,7 hPa 0,0 l/m 0 min 0 min 0 W/m 12,9 km/h (3 Bft) 97,87 %
28.11.2022 08:22 6,0 C 5,6 C 2,8 C 98 % 1010,7 hPa 0,0 l/m 0 min 0 min 0 W/m 6,4 km/h (2 Bft) 98,00 %
28.11.2022 08:24 6,0 C 5,6 C 2,8 C 98 % 1010,7 hPa 0,0 l/m 0 min 0 min 0 W/m 6,4 km/h (2 Bft) 97,96 %
28.11.2022 08:26 6,0 C 5,6 C 2,8 C 98 % 1010,7 hPa 0,0 l/m 0 min 0 min 0 W/m 6,4 km/h (2 Bft) 100,00 %
28.11.2022 08:28 6,0 C 5,6 C 2,8 C 98 % 1010,7 hPa 0,0 l/m 0 min 0 min 0 W/m 16,1 km/h (3 Bft) 97,14 %
28.11.2022 08:30 6,1 C 5,6 C 2,8 C 98 % 1010,7 hPa 0,0 l/m 0 min 0 min 0 W/m 12,9 km/h (3 Bft) 100,00 %
28.11.2022 08:32 6,1 C 5,6 C 2,8 C 98 % 1010,7 hPa 0,0 l/m 0 min 0 min 0 W/m 6,4 km/h (2 Bft) 98,00 %
28.11.2022 08:34 6,1 C 5,6 C 2,8 C 98 % 1010,7 hPa 0,0 l/m 0 min 0 min 5 W/m 6,4 km/h (2 Bft) 100,00 %
28.11.2022 08:36 6,1 C 5,6 C 2,8 C 98 % 1010,7 hPa 0,0 l/m 0 min 0 min 5 W/m 12,9 km/h (3 Bft) 97,83 %
28.11.2022 08:38 6,1 C 5,6 C 2,8 C 98 % 1010,8 hPa 0,0 l/m 0 min 0 min 5 W/m 12,9 km/h (3 Bft) 97,87 %
28.11.2022 08:40 6,1 C 5,6 C 2,8 C 98 % 1010,8 hPa 0,0 l/m 0 min 0 min 5 W/m 12,9 km/h (3 Bft) 100,00 %
28.11.2022 08:42 6,1 C 5,6 C 2,8 C 98 % 1010,8 hPa 0,0 l/m 0 min 0 min 6 W/m 12,9 km/h (3 Bft) 100,00 %
28.11.2022 08:44 6,1 C 5,6 C 2,8 C 98 % 1010,8 hPa 0,0 l/m 0 min 0 min 7 W/m 16,1 km/h (3 Bft) 100,00 %
28.11.2022 08:46 6,1 C 5,6 C 2,8 C 98 % 1010,8 hPa 0,0 l/m 0 min 0 min 8 W/m 12,9 km/h (3 Bft) 95,74 %
28.11.2022 08:48 6,1 C 5,6 C 2,8 C 98 % 1010,8 hPa 0,0 l/m 0 min 0 min 9 W/m 6,4 km/h (2 Bft) 100,00 %
28.11.2022 08:50 6,1 C 5,6 C 3,3 C 98 % 1010,9 hPa 0,0 l/m 0 min 0 min 10 W/m 6,4 km/h (2 Bft) 100,00 %
28.11.2022 08:52 6,1 C 5,6 C 3,3 C 98 % 1010,8 hPa 0,0 l/m 0 min 0 min 11 W/m 6,4 km/h (2 Bft) 97,96 %
28.11.2022 08:54 6,1 C 5,6 C 3,3 C 98 % 1010,7 hPa 0,0 l/m 0 min 0 min 12 W/m 12,9 km/h (3 Bft) 98,00 %
28.11.2022 08:56 6,1 C 5,6 C 3,3 C 98 % 1010,8 hPa 0,0 l/m 0 min 0 min 12 W/m 6,4 km/h (2 Bft) 97,87 %
28.11.2022 08:58 6,1 C 5,6 C 3,3 C 98 % 1010,7 hPa 0,0 l/m 0 min 0 min 11 W/m 6,4 km/h (2 Bft) 95,65 %
28.11.2022 09:00 6,1 C 5,6 C 3,3 C 98 % 1010,8 hPa 0,0 l/m 0 min 0 min 11 W/m 12,9 km/h (3 Bft) 97,87 %
28.11.2022 09:02 6,1 C 5,6 C 3,3 C 98 % 1010,8 hPa 0,0 l/m 0 min 0 min 11 W/m 12,9 km/h (3 Bft) 97,87 %
28.11.2022 09:04 6,2 C 5,6 C 3,3 C 98 % 1010,8 hPa 0,0 l/m 0 min 0 min 11 W/m 12,9 km/h (3 Bft) 97,87 %
28.11.2022 09:06 6,2 C 5,6 C 3,3 C 98 % 1010,8 hPa 0,0 l/m 0 min 0 min 11 W/m 6,4 km/h (2 Bft) 97,87 %
28.11.2022 09:08 6,2 C 5,6 C 3,3 C 98 % 1010,8 hPa 0,0 l/m 0 min 0 min 11 W/m 16,1 km/h (3 Bft) 94,29 %
28.11.2022 09:10 6,2 C 5,6 C 3,3 C 98 % 1010,9 hPa 0,0 l/m 0 min 0 min 11 W/m 12,9 km/h (3 Bft) 98,11 %
28.11.2022 09:12 6,2 C 5,6 C 3,3 C 98 % 1010,9 hPa 0,0 l/m 0 min 0 min 11 W/m 12,9 km/h (3 Bft) 95,74 %
28.11.2022 09:14 6,2 C 5,6 C 3,3 C 98 % 1010,9 hPa 0,0 l/m 0 min 0 min 11 W/m 12,9 km/h (3 Bft) 97,87 %
28.11.2022 09:16 6,2 C 5,6 C 3,3 C 98 % 1010,9 hPa 0,0 l/m 0 min 0 min 12 W/m 12,9 km/h (3 Bft) 95,92 %
28.11.2022 09:18 6,2 C 5,6 C 3,3 C 98 % 1010,9 hPa 0,0 l/m 0 min 0 min 12 W/m 6,4 km/h (2 Bft) 96,00 %
28.11.2022 09:20 6,2 C 5,6 C 3,3 C 98 % 1010,9 hPa 0,0 l/m 0 min 0 min 12 W/m 6,4 km/h (2 Bft) 95,74 %
28.11.2022 09:22 6,2 C 5,6 C 3,3 C 98 % 1011,0 hPa 0,0 l/m 0 min 0 min 14 W/m 6,4 km/h (2 Bft) 94,29 %
28.11.2022 09:24 6,2 C 5,6 C 3,3 C 98 % 1010,9 hPa 0,0 l/m 0 min 0 min 14 W/m 12,9 km/h (3 Bft) 96,23 %
28.11.2022 09:26 6,2 C 5,6 C 3,3 C 98 % 1010,9 hPa 0,0 l/m 0 min 0 min 16 W/m 6,4 km/h (2 Bft) 97,96 %
28.11.2022 09:28 6,2 C 5,6 C 3,3 C 98 % 1010,9 hPa 0,0 l/m 0 min 0 min 16 W/m 16,1 km/h (3 Bft) 100,00 %
28.11.2022 09:30 6,2 C 5,6 C 3,3 C 98 % 1010,9 hPa 0,0 l/m 0 min 0 min 15 W/m 3,2 km/h (1 Bft) 100,00 %
28.11.2022 09:32 6,2 C 5,6 C 3,3 C 98 % 1010,9 hPa 0,0 l/m 0 min 0 min 14 W/m 12,9 km/h (3 Bft) 97,14 %
28.11.2022 09:34 6,2 C 5,6 C 3,3 C 98 % 1010,9 hPa 0,0 l/m 0 min 0 min 14 W/m 6,4 km/h (2 Bft) 98,11 %
28.11.2022 09:36 6,3 C 5,6 C 3,3 C 98 % 1010,9 hPa 0,0 l/m 0 min 0 min 14 W/m 12,9 km/h (3 Bft) 96,00 %
28.11.2022 09:38 6,3 C 5,6 C 3,3 C 98 % 1010,9 hPa 0,0 l/m 0 min 0 min 16 W/m 9,7 km/h (2 Bft) 97,96 %
28.11.2022 09:40 6,3 C 5,6 C 3,3 C 98 % 1010,9 hPa 0,0 l/m 0 min 0 min 16 W/m 3,2 km/h (1 Bft) 97,14 %
28.11.2022 09:42 6,3 C 5,6 C 3,3 C 98 % 1010,9 hPa 0,0 l/m 0 min 0 min 16 W/m 12,9 km/h (3 Bft) 97,87 %
28.11.2022 09:44 6,3 C 5,6 C 3,3 C 98 % 1011,0 hPa 0,0 l/m 0 min 0 min 15 W/m 12,9 km/h (3 Bft) 98,11 %
28.11.2022 09:46 6,3 C 5,6 C 3,3 C 98 % 1011,0 hPa 0,0 l/m 0 min 0 min 14 W/m 9,7 km/h (2 Bft) 98,00 %
28.11.2022 09:48 6,3 C 5,6 C 3,3 C 98 % 1011,0 hPa 0,0 l/m 0 min 2 min 14 W/m 16,1 km/h (3 Bft) 97,87 %
28.11.2022 09:50 6,3 C 5,6 C 3,3 C 98 % 1011,0 hPa 0,0 l/m 0 min 0 min 14 W/m 6,4 km/h (2 Bft) 95,92 %
28.11.2022 09:52 6,3 C 5,6 C 3,3 C 98 % 1011,0 hPa 0,0 l/m 0 min 2 min 16 W/m 12,9 km/h (3 Bft) 100,00 %
28.11.2022 09:54 6,3 C 5,6 C 3,3 C 98 % 1011,0 hPa 0,0 l/m 0 min 2 min 16 W/m 12,9 km/h (3 Bft) 94,34 %
28.11.2022 09:56 6,3 C 5,6 C 3,3 C 98 % 1011,0 hPa 0,0 l/m 0 min 2 min 18 W/m 6,4 km/h (2 Bft) 98,00 %
28.11.2022 09:58 6,3 C 5,6 C 3,3 C 98 % 1011,0 hPa 0,0 l/m 0 min 2 min 19 W/m 6,4 km/h (2 Bft) 95,92 %
28.11.2022 10:00 6,3 C 5,6 C 3,3 C 98 % 1011,0 hPa 0,0 l/m 0 min 2 min 21 W/m 6,4 km/h (2 Bft) 97,14 %
28.11.2022 10:02 6,3 C 5,6 C 3,3 C 98 % 1011,0 hPa 0,0 l/m 0 min 2 min 21 W/m 6,4 km/h (2 Bft) 97,87 %
28.11.2022 10:04 6,3 C 5,6 C 3,3 C 98 % 1011,0 hPa 0,0 l/m 0 min 2 min 23 W/m 12,9 km/h (3 Bft) 97,87 %
28.11.2022 10:06 6,3 C 5,6 C 3,3 C 98 % 1011,1 hPa 0,0 l/m 0 min 2 min 21 W/m 12,9 km/h (3 Bft) 98,31 %
28.11.2022 10:08 6,3 C 5,6 C 3,3 C 98 % 1011,1 hPa 0,0 l/m 0 min 2 min 21 W/m 12,9 km/h (3 Bft) 97,14 %
28.11.2022 10:10 6,3 C 5,6 C 3,3 C 98 % 1011,1 hPa 0,2 l/m 0 min 2 min 21 W/m 6,4 km/h (2 Bft) 95,74 %
28.11.2022 10:12 6,3 C 5,6 C 3,3 C 98 % 1011,0 hPa 0,0 l/m 0 min 2 min 21 W/m 9,7 km/h (2 Bft) 95,65 %
28.11.2022 10:14 6,3 C 5,6 C 3,3 C 98 % 1011,1 hPa 0,0 l/m 0 min 2 min 21 W/m 6,4 km/h (2 Bft) 100,00 %
28.11.2022 10:16 6,3 C 5,6 C 3,3 C 98 % 1011,1 hPa 0,0 l/m 0 min 2 min 23 W/m 6,4 km/h (2 Bft) 97,87 %
28.11.2022 10:18 6,3 C 5,6 C 3,3 C 98 % 1011,1 hPa 0,0 l/m 0 min 2 min 23 W/m 6,4 km/h (2 Bft) 100,00 %
28.11.2022 10:20 6,3 C 5,6 C 3,3 C 98 % 1011,1 hPa 0,0 l/m 0 min 2 min 23 W/m 6,4 km/h (2 Bft) 100,00 %
28.11.2022 10:22 6,3 C 5,6 C 3,3 C 98 % 1011,2 hPa 0,0 l/m 0 min 2 min 23 W/m 6,4 km/h (2 Bft) 98,11 %
28.11.2022 10:24 6,3 C 5,6 C 3,3 C 98 % 1011,2 hPa 0,0 l/m 0 min 2 min 25 W/m 6,4 km/h (2 Bft) 100,00 %
28.11.2022 10:26 6,3 C 5,6 C 3,3 C 98 % 1011,2 hPa 0,2 l/m 0 min 2 min 25 W/m 12,9 km/h (3 Bft) 100,00 %
28.11.2022 10:28 6,3 C 5,6 C 3,3 C 98 % 1011,2 hPa 0,0 l/m 0 min 2 min 26 W/m 6,4 km/h (2 Bft) 97,87 %
28.11.2022 10:30 6,3 C 5,6 C 3,3 C 98 % 1011,2 hPa 0,0 l/m 0 min 2 min 26 W/m 6,4 km/h (2 Bft) 100,00 %
28.11.2022 10:32 6,3 C 5,6 C 3,3 C 98 % 1011,2 hPa 0,0 l/m 0 min 2 min 28 W/m 6,4 km/h (2 Bft) 97,14 %
28.11.2022 10:34 6,3 C 5,6 C 3,3 C 98 % 1011,3 hPa 0,0 l/m 0 min 2 min 29 W/m 6,4 km/h (2 Bft) 97,87 %
28.11.2022 10:36 6,3 C 5,6 C 3,3 C 98 % 1011,3 hPa 0,0 l/m 0 min 2 min 30 W/m 6,4 km/h (2 Bft) 100,00 %
28.11.2022 10:38 6,3 C 5,6 C 3,3 C 98 % 1011,3 hPa 0,0 l/m 0 min 2 min 30 W/m 6,4 km/h (2 Bft) 98,11 %
28.11.2022 10:40 6,3 C 5,6 C 3,3 C 98 % 1011,4 hPa 0,2 l/m 0 min 2 min 32 W/m 6,4 km/h (2 Bft) 93,62 %
28.11.2022 10:42 6,4 C 5,6 C 3,3 C 98 % 1011,3 hPa 0,0 l/m 0 min 2 min 34 W/m 6,4 km/h (2 Bft) 97,87 %
28.11.2022 10:44 6,3 C 5,6 C 3,3 C 98 % 1011,3 hPa 0,0 l/m 0 min 2 min 35 W/m 6,4 km/h (2 Bft) 100,00 %
28.11.2022 10:46 6,4 C 6,1 C 3,3 C 98 % 1011,3 hPa 0,0 l/m 0 min 2 min 37 W/m 12,9 km/h (3 Bft) 91,49 %
28.11.2022 10:48 6,4 C 6,1 C 3,3 C 98 % 1011,3 hPa 0,0 l/m 0 min 2 min 37 W/m 6,4 km/h (2 Bft) 93,88 %
28.11.2022 10:50 6,4 C 6,1 C 3,3 C 98 % 1011,3 hPa 0,2 l/m 0 min 2 min 38 W/m 6,4 km/h (2 Bft) 95,74 %
28.11.2022 10:52 6,4 C 6,1 C 3,3 C 98 % 1011,3 hPa 0,0 l/m 0 min 2 min 39 W/m 6,4 km/h (2 Bft) 91,43 %
28.11.2022 10:54 6,4 C 6,1 C 3,3 C 98 % 1011,3 hPa 0,0 l/m 0 min 2 min 40 W/m 3,2 km/h (1 Bft) 95,74 %
28.11.2022 10:56 6,4 C 6,1 C 3,3 C 98 % 1011,3 hPa 0,0 l/m 0 min 2 min 40 W/m 6,4 km/h (2 Bft) 93,62 %
28.11.2022 10:58 6,4 C 6,1 C 3,3 C 98 % 1011,3 hPa 0,0 l/m 0 min 2 min 44 W/m 6,4 km/h (2 Bft) 92,45 %
28.11.2022 11:00 6,5 C 6,1 C 3,3 C 98 % 1011,2 hPa 0,0 l/m 0 min 2 min 46 W/m 12,9 km/h (3 Bft) 80,00 %
28.11.2022 11:02 6,5 C 6,1 C 3,3 C 98 % 1011,2 hPa 0,2 l/m 0 min 2 min 47 W/m 12,9 km/h (3 Bft) 63,89 %
28.11.2022 11:04 6,5 C 6,1 C 3,3 C 98 % 1011,2 hPa 0,0 l/m 0 min 2 min 49 W/m 12,9 km/h (3 Bft) 97,14 %
28.11.2022 11:06 6,5 C 6,1 C 3,3 C 98 % 1011,2 hPa 0,0 l/m 0 min 2 min 49 W/m 3,2 km/h (1 Bft) 93,75 %
28.11.2022 11:08 6,5 C 6,1 C 3,3 C 98 % 1011,2 hPa 0,0 l/m 0 min 2 min 51 W/m 12,9 km/h (3 Bft) 94,29 %
28.11.2022 11:10 6,5 C 6,1 C 3,9 C 98 % 1011,2 hPa 0,2 l/m 0 min 2 min 54 W/m 6,4 km/h (2 Bft) 95,74 %
28.11.2022 11:12 6,5 C 6,1 C 3,9 C 98 % 1011,2 hPa 0,0 l/m 0 min 2 min 56 W/m 6,4 km/h (2 Bft) 95,74 %
28.11.2022 11:14 6,5 C 6,1 C 3,9 C 98 % 1011,3 hPa 0,0 l/m 0 min 2 min 56 W/m 3,2 km/h (1 Bft) 95,74 %
28.11.2022 11:16 6,6 C 6,1 C 3,9 C 98 % 1011,2 hPa 0,0 l/m 0 min 2 min 59 W/m 6,4 km/h (2 Bft) 95,74 %
28.11.2022 11:18 6,6 C 6,1 C 3,9 C 98 % 1011,2 hPa 0,0 l/m 0 min 2 min 62 W/m 6,4 km/h (2 Bft) 96,23 %
28.11.2022 11:20 6,6 C 6,1 C 3,9 C 98 % 1011,2 hPa 0,0 l/m 0 min 2 min 68 W/m 9,7 km/h (2 Bft) 97,87 %
28.11.2022 11:22 6,6 C 6,1 C 3,9 C 98 % 1011,1 hPa 0,2 l/m 0 min 2 min 69 W/m 12,9 km/h (3 Bft) 97,37 %
28.11.2022 11:24 6,6 C 6,1 C 3,9 C 98 % 1011,1 hPa 0,0 l/m 0 min 2 min 74 W/m 3,2 km/h (1 Bft) 95,92 %
28.11.2022 11:26 6,6 C 6,1 C 3,9 C 98 % 1011,1 hPa 0,0 l/m 0 min 2 min 80 W/m 9,7 km/h (2 Bft) 97,87 %
28.11.2022 11:28 6,6 C 6,1 C 3,9 C 98 % 1011,2 hPa 0,0 l/m 0 min 2 min 84 W/m 12,9 km/h (3 Bft) 100,00 %
28.11.2022 11:30 6,7 C 6,1 C 3,9 C 98 % 1011,1 hPa 0,0 l/m 0 min 2 min 78 W/m 6,4 km/h (2 Bft) 100,00 %
28.11.2022 11:32 6,7 C 6,1 C 3,9 C 98 % 1011,1 hPa 0,0 l/m 0 min 2 min 69 W/m 3,2 km/h (1 Bft) 100,00 %
28.11.2022 11:34 6,7 C 6,1 C 3,9 C 98 % 1011,1 hPa 0,2 l/m 0 min 2 min 64 W/m 12,9 km/h (3 Bft) 97,87 %
28.11.2022 11:36 6,7 C 6,1 C 3,9 C 98 % 1011,1 hPa 0,0 l/m 0 min 2 min 68 W/m 6,4 km/h (2 Bft) 97,37 %
28.11.2022 11:38 6,7 C 6,1 C 3,9 C 98 % 1011,1 hPa 0,0 l/m 0 min 2 min 69 W/m 6,4 km/h (2 Bft) 100,00 %
28.11.2022 11:40 6,8 C 6,1 C 3,9 C 98 % 1011,1 hPa 0,0 l/m 0 min 2 min 64 W/m 6,4 km/h (2 Bft) 100,00 %
28.11.2022 11:42 6,8 C 6,7 C 3,9 C 98 % 1011,1 hPa 0,0 l/m 0 min 2 min 60 W/m 6,4 km/h (2 Bft) 97,87 %
28.11.2022 11:44 6,8 C 6,7 C 3,9 C 98 % 1011,2 hPa 0,0 l/m 0 min 2 min 52 W/m 6,4 km/h (2 Bft) 100,00 %
28.11.2022 11:46 6,8 C 6,1 C 3,9 C 98 % 1011,1 hPa 0,0 l/m 0 min 2 min 48 W/m 6,4 km/h (2 Bft) 100,00 %
28.11.2022 11:48 6,8 C 6,1 C 3,9 C 98 % 1011,1 hPa 0,0 l/m 0 min 2 min 43 W/m 19,3 km/h (3 Bft) 100,00 %
28.11.2022 11:50 6,8 C 6,1 C 3,9 C 98 % 1011,1 hPa 0,0 l/m 0 min 2 min 36 W/m 16,1 km/h (3 Bft) 100,00 %
28.11.2022 11:52 6,8 C 6,1 C 3,9 C 98 % 1011,2 hPa 0,0 l/m 0 min 2 min 35 W/m 12,9 km/h (3 Bft) 89,47 %
28.11.2022 11:54 6,8 C 6,1 C 3,9 C 98 % 1011,1 hPa 0,0 l/m 0 min 2 min 38 W/m 12,9 km/h (3 Bft) 98,00 %
28.11.2022 11:56 6,8 C 6,1 C 3,9 C 98 % 1011,1 hPa 0,0 l/m 0 min 2 min 40 W/m 6,4 km/h (2 Bft) 93,48 %
28.11.2022 11:58 6,8 C 6,1 C 3,9 C 98 % 1011,1 hPa 0,0 l/m 0 min 2 min 40 W/m 12,9 km/h (3 Bft) 93,62 %
28.11.2022 12:00 6,8 C 6,1 C 3,9 C 98 % 1011,0 hPa 0,0 l/m 0 min 2 min 39 W/m 6,4 km/h (2 Bft) 93,62 %
28.11.2022 12:02 6,8 C 6,1 C 3,9 C 98 % 1011,1 hPa 0,0 l/m 0 min 2 min 40 W/m 6,4 km/h (2 Bft) 92,45 %
28.11.2022 12:04 6,8 C 6,1 C 3,9 C 98 % 1011,1 hPa 0,0 l/m 0 min 2 min 41 W/m 3,2 km/h (1 Bft) 100,00 %
28.11.2022 12:08 6,9 C 6,1 C 3,9 C 98 % 1011,1 hPa 0,0 l/m 0 min 4 min 41 W/m 0,0 km/h (0 Bft) 95,83 %
28.11.2022 12:10 6,9 C 6,7 C 3,9 C 98 % 1011,1 hPa 0,2 l/m 0 min 2 min 44 W/m 0,0 km/h (0 Bft) 97,92 %
28.11.2022 12:12 6,9 C 6,7 C 3,9 C 98 % 1011,1 hPa 0,0 l/m 0 min 2 min 45 W/m 6,4 km/h (2 Bft) 95,74 %
28.11.2022 12:14 6,9 C 6,1 C 3,9 C 98 % 1011,1 hPa 0,0 l/m 0 min 2 min 44 W/m 12,9 km/h (3 Bft) 95,74 %
28.11.2022 12:16 6,9 C 6,1 C 3,9 C 98 % 1011,1 hPa 0,0 l/m 0 min 2 min 42 W/m 6,4 km/h (2 Bft) 95,74 %
28.11.2022 12:18 6,9 C 6,7 C 4,4 C 98 % 1011,1 hPa 0,0 l/m 0 min 2 min 41 W/m 3,2 km/h (1 Bft) 97,62 %
28.11.2022 12:20 6,9 C 6,7 C 4,4 C 98 % 1011,0 hPa 0,0 l/m 0 min 2 min 43 W/m 6,4 km/h (2 Bft) 98,04 %
28.11.2022 12:22 6,9 C 6,1 C 3,9 C 98 % 1011,0 hPa 0,0 l/m 0 min 0 min 42 W/m 6,4 km/h (2 Bft) 97,87 %
28.11.2022 12:24 7,0 C 6,1 C 4,4 C 98 % 1011,1 hPa 0,0 l/m 0 min 0 min 41 W/m 6,4 km/h (2 Bft) 97,87 %
28.11.2022 12:26 7,0 C 6,1 C 4,4 C 98 % 1011,1 hPa 0,0 l/m 0 min 0 min 39 W/m 3,2 km/h (1 Bft) 97,87 %
28.11.2022 12:28 7,0 C 6,7 C 4,4 C 98 % 1011,1 hPa 0,0 l/m 0 min 0 min 39 W/m 6,4 km/h (2 Bft) 95,74 %
28.11.2022 12:30 7,0 C 6,7 C 4,4 C 98 % 1011,1 hPa 0,0 l/m 0 min 2 min 36 W/m 6,4 km/h (2 Bft) 97,83 %
28.11.2022 12:32 7,0 C 6,1 C 4,4 C 98 % 1011,1 hPa 0,0 l/m 0 min 0 min 33 W/m 12,9 km/h (3 Bft) 95,74 %
28.11.2022 12:34 7,0 C 6,1 C 4,4 C 98 % 1011,1 hPa 0,0 l/m 0 min 2 min 32 W/m 6,4 km/h (2 Bft) 100,00 %
28.11.2022 12:36 7,0 C 6,1 C 4,4 C 98 % 1011,0 hPa 0,0 l/m 0 min 0 min 28 W/m 12,9 km/h (3 Bft) 100,00 %
28.11.2022 12:38 7,0 C 6,1 C 4,4 C 98 % 1011,1 hPa 0,0 l/m 0 min 0 min 27 W/m 3,2 km/h (1 Bft) 97,87 %
28.11.2022 12:40 7,0 C 6,1 C 4,4 C 98 % 1011,0 hPa 0,0 l/m 0 min 0 min 26 W/m 9,7 km/h (2 Bft) 100,00 %
28.11.2022 12:42 7,0 C 6,1 C 4,4 C 98 % 1011,1 hPa 0,0 l/m 0 min 0 min 26 W/m 6,4 km/h (2 Bft) 95,74 %
28.11.2022 12:44 7,0 C 6,1 C 4,4 C 98 % 1011,0 hPa 0,0 l/m 0 min 0 min 26 W/m 6,4 km/h (2 Bft) 95,74 %
28.11.2022 12:46 7,0 C 6,1 C 4,4 C 98 % 1011,1 hPa 0,0 l/m 0 min 0 min 26 W/m 3,2 km/h (1 Bft) 97,87 %
28.11.2022 12:48 7,0 C 6,1 C 4,4 C 98 % 1011,1 hPa 0,2 l/m 0 min 0 min 26 W/m 6,4 km/h (2 Bft) 95,74 %
28.11.2022 12:50 7,1 C 6,1 C 4,4 C 98 % 1011,1 hPa 0,0 l/m 0 min 0 min 25 W/m 6,4 km/h (2 Bft) 95,74 %
28.11.2022 12:52 7,1 C 6,1 C 4,4 C 98 % 1011,1 hPa 0,0 l/m 0 min 2 min 25 W/m 3,2 km/h (1 Bft) 95,35 %
28.11.2022 12:54 7,1 C 6,1 C 4,4 C 98 % 1011,1 hPa 0,0 l/m 0 min 2 min 25 W/m 6,4 km/h (2 Bft) 97,87 %
28.11.2022 12:56 7,1 C 6,1 C 4,4 C 98 % 1011,2 hPa 0,0 l/m 0 min 0 min 25 W/m 6,4 km/h (2 Bft) 97,87 %
28.11.2022 12:58 7,1 C 6,1 C 4,4 C 98 % 1011,2 hPa 0,0 l/m 0 min 2 min 26 W/m 3,2 km/h (1 Bft) 97,87 %
28.11.2022 13:00 7,1 C 6,1 C 4,4 C 98 % 1011,2 hPa 0,0 l/m 0 min 0 min 27 W/m 6,4 km/h (2 Bft) 95,92 %
28.11.2022 13:02 7,1 C 6,1 C 4,4 C 98 % 1011,2 hPa 0,0 l/m 0 min 0 min 28 W/m 6,4 km/h (2 Bft) 95,74 %
28.11.2022 13:04 7,1 C 6,1 C 4,4 C 98 % 1011,2 hPa 0,0 l/m 0 min 2 min 28 W/m 6,4 km/h (2 Bft) 97,92 %
28.11.2022 13:06 7,1 C 6,7 C 4,4 C 98 % 1011,2 hPa 0,2 l/m 0 min 2 min 27 W/m 6,4 km/h (2 Bft) 97,83 %
28.11.2022 13:08 7,1 C 6,1 C 4,4 C 98 % 1011,3 hPa 0,0 l/m 0 min 2 min 25 W/m 6,4 km/h (2 Bft) 97,87 %
28.11.2022 13:10 7,1 C 6,1 C 4,4 C 98 % 1011,2 hPa 0,0 l/m 0 min 2 min 25 W/m 6,4 km/h (2 Bft) 97,87 %
28.11.2022 13:12 7,1 C 6,1 C 4,4 C 98 % 1011,3 hPa 0,0 l/m 0 min 0 min 23 W/m 9,7 km/h (2 Bft) 95,74 %
28.11.2022 13:14 7,1 C 6,1 C 4,4 C 98 % 1011,2 hPa 0,0 l/m 0 min 0 min 23 W/m 12,9 km/h (3 Bft) 97,67 %
28.11.2022 13:16 7,1 C 6,1 C 4,4 C 98 % 1011,2 hPa 0,0 l/m 0 min 2 min 25 W/m 6,4 km/h (2 Bft) 96,00 %
28.11.2022 13:18 7,1 C 6,1 C 4,4 C 98 % 1011,2 hPa 0,0 l/m 0 min 2 min 25 W/m 6,4 km/h (2 Bft) 97,87 %
28.11.2022 13:20 7,1 C 6,1 C 4,4 C 98 % 1011,3 hPa 0,0 l/m 0 min 2 min 25 W/m 0,0 km/h (0 Bft) 100,00 %
28.11.2022 13:22 7,1 C 6,1 C 4,4 C 98 % 1011,3 hPa 0,2 l/m 0 min 2 min 25 W/m 6,4 km/h (2 Bft) 97,87 %
28.11.2022 13:24 7,1 C 6,1 C 4,4 C 98 % 1011,2 hPa 0,0 l/m 0 min 2 min 26 W/m 6,4 km/h (2 Bft) 97,87 %
28.11.2022 13:26 7,1 C 6,1 C 4,4 C 98 % 1011,3 hPa 0,0 l/m 0 min 2 min 28 W/m 12,9 km/h (3 Bft) 97,67 %
28.11.2022 13:28 7,1 C 6,1 C 4,4 C 98 % 1011,2 hPa 0,2 l/m 0 min 2 min 27 W/m 12,9 km/h (3 Bft) 98,00 %
28.11.2022 13:30 7,1 C 6,1 C 4,4 C 98 % 1011,3 hPa 0,0 l/m 0 min 2 min 26 W/m 6,4 km/h (2 Bft) 97,87 %
28.11.2022 13:32 7,1 C 6,1 C 4,4 C 98 % 1011,3 hPa 0,0 l/m 0 min 2 min 28 W/m 6,4 km/h (2 Bft) 97,87 %
28.11.2022 13:34 7,1 C 6,1 C 4,4 C 98 % 1011,3 hPa 0,0 l/m 0 min 2 min 29 W/m 6,4 km/h (2 Bft) 97,87 %
28.11.2022 13:36 7,1 C 6,1 C 4,4 C 98 % 1011,3 hPa 0,0 l/m 0 min 0 min 32 W/m 3,2 km/h (1 Bft) 97,67 %
28.11.2022 13:38 7,1 C 6,1 C 4,4 C 98 % 1011,2 hPa 0,0 l/m 0 min 2 min 33 W/m 12,9 km/h (3 Bft) 96,00 %
28.11.2022 13:40 7,1 C 6,7 C 4,4 C 98 % 1011,3 hPa 0,0 l/m 0 min 0 min 33 W/m 6,4 km/h (2 Bft) 87,23 %
28.11.2022 13:42 7,1 C 6,7 C 4,4 C 98 % 1011,3 hPa 0,2 l/m 0 min 0 min 32 W/m 3,2 km/h (1 Bft) 64,44 %
28.11.2022 13:44 7,1 C 6,7 C 4,4 C 98 % 1011,2 hPa 0,0 l/m 0 min 0 min 30 W/m 3,2 km/h (1 Bft) 95,74 %
28.11.2022 13:46 7,1 C 6,7 C 4,4 C 98 % 1011,3 hPa 0,0 l/m 0 min 0 min 30 W/m 12,9 km/h (3 Bft) 95,74 %
28.11.2022 13:48 7,1 C 6,7 C 4,4 C 98 % 1011,2 hPa 0,0 l/m 0 min 0 min 31 W/m 6,4 km/h (2 Bft) 97,67 %
28.11.2022 13:50 7,1 C 6,7 C 4,4 C 98 % 1011,2 hPa 0,0 l/m 0 min 0 min 32 W/m 3,2 km/h (1 Bft) 98,00 %
28.11.2022 13:52 7,1 C 6,7 C 4,4 C 98 % 1011,2 hPa 0,2 l/m 0 min 0 min 31 W/m 12,9 km/h (3 Bft) 97,87 %
28.11.2022 13:54 7,1 C 6,7 C 4,4 C 98 % 1011,2 hPa 0,0 l/m 0 min 0 min 28 W/m 3,2 km/h (1 Bft) 100,00 %
28.11.2022 13:56 7,1 C 6,7 C 4,4 C 99 % 1011,2 hPa 0,0 l/m 0 min 0 min 28 W/m 12,9 km/h (3 Bft) 93,18 %
28.11.2022 13:58 7,1 C 6,7 C 4,4 C 99 % 1011,2 hPa 0,0 l/m 0 min 0 min 26 W/m 6,4 km/h (2 Bft) 93,48 %
28.11.2022 14:00 7,1 C 6,7 C 4,4 C 99 % 1011,2 hPa 0,0 l/m 0 min 2 min 27 W/m 6,4 km/h (2 Bft) 89,36 %
28.11.2022 14:02 7,1 C 6,7 C 4,4 C 99 % 1011,1 hPa 0,0 l/m 0 min 0 min 29 W/m 3,2 km/h (1 Bft) 95,74 %
28.11.2022 14:04 7,1 C 6,7 C 4,4 C 99 % 1011,2 hPa 0,0 l/m 0 min 0 min 30 W/m 3,2 km/h (1 Bft) 93,62 %
28.11.2022 14:06 7,1 C 6,7 C 4,4 C 99 % 1011,2 hPa 0,0 l/m 0 min 0 min 30 W/m 6,4 km/h (2 Bft) 94,12 %
28.11.2022 14:08 7,1 C 6,7 C 4,4 C 99 % 1011,2 hPa 0,0 l/m 0 min 0 min 28 W/m 6,4 km/h (2 Bft) 93,48 %
28.11.2022 14:10 7,2 C 6,7 C 4,4 C 99 % 1011,2 hPa 0,0 l/m 0 min 2 min 28 W/m 3,2 km/h (1 Bft) 95,74 %
28.11.2022 14:12 7,2 C 6,7 C 4,4 C 99 % 1011,3 hPa 0,0 l/m 0 min 2 min 25 W/m 3,2 km/h (1 Bft) 95,74 %
28.11.2022 14:14 7,2 C 6,7 C 4,4 C 98 % 1011,2 hPa 0,0 l/m 0 min 2 min 23 W/m 6,4 km/h (2 Bft) 97,87 %
28.11.2022 14:16 7,2 C 6,7 C 4,4 C 98 % 1011,2 hPa 0,2 l/m 0 min 2 min 24 W/m 3,2 km/h (1 Bft) 87,23 %
28.11.2022 14:18 7,2 C 6,7 C 4,4 C 98 % 1011,2 hPa 0,0 l/m 0 min 2 min 25 W/m 3,2 km/h (1 Bft) 91,49 %
28.11.2022 14:20 7,2 C 6,7 C 4,4 C 98 % 1011,2 hPa 0,0 l/m 0 min 2 min 25 W/m 6,4 km/h (2 Bft) 95,74 %
28.11.2022 14:22 7,2 C 6,7 C 4,4 C 98 % 1011,2 hPa 0,0 l/m 0 min 2 min 25 W/m 6,4 km/h (2 Bft) 97,87 %
28.11.2022 14:24 7,2 C 6,7 C 4,4 C 98 % 1011,2 hPa 0,2 l/m 0 min 2 min 24 W/m 3,2 km/h (1 Bft) 91,49 %
28.11.2022 14:26 7,2 C 6,7 C 4,4 C 98 % 1011,2 hPa 0,0 l/m 0 min 2 min 23 W/m 12,9 km/h (3 Bft) 93,62 %
28.11.2022 14:28 7,2 C 6,7 C 4,4 C 98 % 1011,2 hPa 0,0 l/m 0 min 2 min 23 W/m 3,2 km/h (1 Bft) 93,02 %
28.11.2022 14:30 7,2 C 6,7 C 4,4 C 98 % 1011,2 hPa 0,0 l/m 0 min 2 min 24 W/m 6,4 km/h (2 Bft) 95,74 %
28.11.2022 14:32 7,3 C 6,7 C 4,4 C 98 % 1011,2 hPa 0,0 l/m 0 min 2 min 26 W/m 9,7 km/h (2 Bft) 95,65 %
28.11.2022 14:34 7,2 C 6,7 C 4,4 C 98 % 1011,3 hPa 0,0 l/m 0 min 2 min 26 W/m 12,9 km/h (3 Bft) 97,87 %
28.11.2022 14:36 7,3 C 6,7 C 4,4 C 99 % 1011,3 hPa 0,0 l/m 0 min 2 min 28 W/m 6,4 km/h (2 Bft) 87,23 %
28.11.2022 14:38 7,3 C 6,7 C 4,4 C 99 % 1011,2 hPa 0,2 l/m 0 min 2 min 28 W/m 3,2 km/h (1 Bft) 74,00 %
28.11.2022 14:40 7,3 C 6,7 C 4,4 C 99 % 1011,2 hPa 0,0 l/m 0 min 2 min 29 W/m 6,4 km/h (2 Bft) 93,62 %
28.11.2022 14:42 7,3 C 6,7 C 4,4 C 99 % 1011,2 hPa 0,0 l/m 0 min 2 min 29 W/m 3,2 km/h (1 Bft) 93,62 %
28.11.2022 14:44 7,3 C 6,7 C 4,4 C 99 % 1011,2 hPa 0,0 l/m 0 min 2 min 30 W/m 3,2 km/h (1 Bft) 87,23 %
28.11.2022 14:46 7,3 C 6,7 C 4,4 C 99 % 1011,2 hPa 0,0 l/m 0 min 2 min 30 W/m 3,2 km/h (1 Bft) 89,36 %
28.11.2022 14:48 7,3 C 6,7 C 5,0 C 99 % 1011,3 hPa 0,0 l/m 0 min 2 min 28 W/m 3,2 km/h (1 Bft) 95,35 %
28.11.2022 14:50 7,3 C 6,7 C 5,0 C 99 % 1011,3 hPa 0,0 l/m 0 min 2 min 28 W/m 6,4 km/h (2 Bft) 88,00 %
28.11.2022 14:52 7,3 C 6,7 C 5,0 C 99 % 1011,3 hPa 0,0 l/m 0 min 2 min 26 W/m 6,4 km/h (2 Bft) 91,49 %
28.11.2022 14:54 7,3 C 6,7 C 5,0 C 99 % 1011,3 hPa 0,0 l/m 0 min 2 min 22 W/m 6,4 km/h (2 Bft) 95,74 %
28.11.2022 14:56 7,4 C 6,7 C 5,0 C 99 % 1011,3 hPa 0,2 l/m 0 min 2 min 19 W/m 3,2 km/h (1 Bft) 95,74 %
28.11.2022 14:58 7,3 C 6,7 C 5,0 C 99 % 1011,3 hPa 0,0 l/m 0 min 2 min 18 W/m 3,2 km/h (1 Bft) 93,02 %
28.11.2022 15:00 7,4 C 6,7 C 5,0 C 99 % 1011,3 hPa 0,0 l/m 0 min 2 min 16 W/m 3,2 km/h (1 Bft) 89,36 %
28.11.2022 15:02 7,4 C 6,7 C 5,0 C 99 % 1011,3 hPa 0,0 l/m 0 min 2 min 14 W/m 6,4 km/h (2 Bft) 89,36 %
28.11.2022 15:04 7,4 C 6,7 C 5,0 C 99 % 1011,3 hPa 0,0 l/m 0 min 0 min 12 W/m 3,2 km/h (1 Bft) 88,00 %
28.11.2022 15:06 7,4 C 6,7 C 5,0 C 99 % 1011,2 hPa 0,0 l/m 0 min 0 min 12 W/m 3,2 km/h (1 Bft) 95,65 %
28.11.2022 15:08 7,4 C 6,7 C 5,0 C 99 % 1011,2 hPa 0,0 l/m 0 min 0 min 12 W/m 3,2 km/h (1 Bft) 97,87 %
28.11.2022 15:10 7,4 C 6,7 C 5,0 C 99 % 1011,2 hPa 0,0 l/m 0 min 0 min 12 W/m 6,4 km/h (2 Bft) 98,00 %
28.11.2022 15:12 7,4 C 6,7 C 5,0 C 99 % 1011,2 hPa 0,0 l/m 0 min 0 min 12 W/m 3,2 km/h (1 Bft) 97,87 %
28.11.2022 15:14 7,4 C 6,7 C 5,0 C 99 % 1011,2 hPa 0,0 l/m 0 min 0 min 11 W/m 6,4 km/h (2 Bft) 95,65 %
28.11.2022 15:16 7,4 C 6,7 C 5,0 C 99 % 1011,2 hPa 0,0 l/m 0 min 0 min 11 W/m 3,2 km/h (1 Bft) 97,62 %
28.11.2022 15:18 7,4 C 6,7 C 5,0 C 99 % 1011,2 hPa 0,0 l/m 0 min 0 min 11 W/m 6,4 km/h (2 Bft) 100,00 %
28.11.2022 15:20 7,4 C 6,7 C 5,0 C 99 % 1011,3 hPa 0,0 l/m 0 min 0 min 11 W/m 3,2 km/h (1 Bft) 100,00 %
28.11.2022 15:22 7,4 C 6,7 C 5,0 C 99 % 1011,3 hPa 0,0 l/m 0 min 0 min 11 W/m 3,2 km/h (1 Bft) 100,00 %
28.11.2022 15:24 7,4 C 6,7 C 5,0 C 99 % 1011,3 hPa 0,0 l/m 0 min 2 min 9 W/m 6,4 km/h (2 Bft) 97,96 %
28.11.2022 15:26 7,4 C 6,7 C 5,0 C 99 % 1011,3 hPa 0,0 l/m 0 min 0 min 9 W/m 3,2 km/h (1 Bft) 100,00 %
28.11.2022 15:28 7,4 C 6,7 C 5,0 C 99 % 1011,3 hPa 0,0 l/m 0 min 0 min 9 W/m 6,4 km/h (2 Bft) 100,00 %
28.11.2022 15:30 7,5 C 6,7 C 5,0 C 99 % 1011,3 hPa 0,0 l/m 0 min 0 min 10 W/m 6,4 km/h (2 Bft) 100,00 %
28.11.2022 15:32 7,4 C 6,7 C 5,0 C 99 % 1011,3 hPa 0,0 l/m 0 min 0 min 11 W/m 3,2 km/h (1 Bft) 97,56 %
28.11.2022 15:34 7,4 C 6,7 C 5,0 C 99 % 1011,3 hPa 0,0 l/m 0 min 0 min 11 W/m 3,2 km/h (1 Bft) 100,00 %
28.11.2022 15:36 7,5 C 6,7 C 5,0 C 99 % 1011,4 hPa 0,0 l/m 0 min 0 min 12 W/m 3,2 km/h (1 Bft) 96,00 %
28.11.2022 15:38 7,5 C 6,7 C 5,0 C 99 % 1011,4 hPa 0,0 l/m 0 min 0 min 12 W/m 6,4 km/h (2 Bft) 100,00 %
28.11.2022 15:40 7,5 C 6,7 C 5,0 C 99 % 1011,4 hPa 0,0 l/m 0 min 0 min 12 W/m 6,4 km/h (2 Bft) 97,87 %
28.11.2022 15:42 7,5 C 6,7 C 5,0 C 99 % 1011,5 hPa 0,0 l/m 0 min 0 min 11 W/m 0,0 km/h (0 Bft) 97,62 %
28.11.2022 15:44 7,5 C 6,7 C 5,0 C 99 % 1011,5 hPa 0,0 l/m 0 min 0 min 11 W/m 0,0 km/h (0 Bft) 100,00 %
28.11.2022 15:46 7,5 C 6,7 C 5,0 C 99 % 1011,5 hPa 0,0 l/m 0 min 0 min 9 W/m 0,0 km/h (0 Bft) 95,74 %
28.11.2022 15:48 7,5 C 6,7 C 5,0 C 99 % 1011,5 hPa 0,0 l/m 0 min 0 min 9 W/m 0,0 km/h (0 Bft) 97,96 %
28.11.2022 15:50 7,5 C 6,7 C 5,0 C 99 % 1011,5 hPa 0,0 l/m 0 min 0 min 7 W/m 0,0 km/h (0 Bft) 97,87 %
28.11.2022 15:52 7,6 C 6,7 C 5,0 C 99 % 1011,5 hPa 0,0 l/m 0 min 0 min 7 W/m 0,0 km/h (0 Bft) 100,00 %
28.11.2022 15:54 7,6 C 6,7 C 5,0 C 99 % 1011,5 hPa 0,0 l/m 0 min 0 min 7 W/m 3,2 km/h (1 Bft) 97,87 %
28.11.2022 15:56 7,6 C 6,7 C 5,0 C 99 % 1011,6 hPa 0,0 l/m 0 min 0 min 5 W/m 6,4 km/h (2 Bft) 100,00 %
28.11.2022 15:58 7,6 C 6,7 C 5,0 C 99 % 1011,6 hPa 0,0 l/m 0 min 0 min 5 W/m 6,4 km/h (2 Bft) 100,00 %
28.11.2022 16:00 7,6 C 6,7 C 5,0 C 99 % 1011,6 hPa 0,0 l/m 0 min 0 min 3 W/m 6,4 km/h (2 Bft) 95,74 %
28.11.2022 16:02 7,6 C 6,7 C 5,0 C 99 % 1011,6 hPa 0,0 l/m 0 min 0 min 0 W/m 6,4 km/h (2 Bft) 100,00 %
28.11.2022 16:04 7,6 C 6,7 C 5,0 C 99 % 1011,7 hPa 0,0 l/m 0 min 0 min 0 W/m 3,2 km/h (1 Bft) 100,00 %
28.11.2022 16:06 7,6 C 6,7 C 5,0 C 99 % 1011,8 hPa 0,0 l/m 0 min 0 min 0 W/m 3,2 km/h (1 Bft) 94,44 %
28.11.2022 16:08 7,6 C 6,7 C 5,0 C 99 % 1011,8 hPa 0,0 l/m 0 min 0 min 0 W/m 6,4 km/h (2 Bft) 100,00 %
28.11.2022 16:10 7,6 C 6,7 C 5,0 C 99 % 1011,8 hPa 0,0 l/m 0 min 0 min 0 W/m 6,4 km/h (2 Bft) 100,00 %
28.11.2022 16:12 7,6 C 6,7 C 5,0 C 99 % 1011,8 hPa 0,0 l/m 0 min 0 min 0 W/m 6,4 km/h (2 Bft) 91,67 %
28.11.2022 16:14 7,6 C 6,7 C 5,0 C 99 % 1011,8 hPa 0,0 l/m 0 min 0 min 0 W/m 3,2 km/h (1 Bft) 97,87 %
28.11.2022 16:16 7,6 C 6,7 C 5,0 C 99 % 1011,8 hPa 0,0 l/m 0 min 0 min 0 W/m 12,9 km/h (3 Bft) 97,87 %
28.11.2022 16:18 7,6 C 6,7 C 5,0 C 99 % 1011,8 hPa 0,0 l/m 0 min 0 min 0 W/m 3,2 km/h (1 Bft) 95,74 %
28.11.2022 16:20 7,6 C 6,7 C 5,0 C 99 % 1011,8 hPa 0,0 l/m 0 min 0 min 0 W/m 6,4 km/h (2 Bft) 97,87 %
28.11.2022 16:22 7,6 C 6,7 C 5,0 C 99 % 1011,9 hPa 0,0 l/m 0 min 0 min 0 W/m 3,2 km/h (1 Bft) 97,83 %
28.11.2022 16:24 7,6 C 6,7 C 5,0 C 99 % 1011,8 hPa 0,0 l/m 0 min 0 min 0 W/m 6,4 km/h (2 Bft) 95,74 %
28.11.2022 16:26 7,6 C 6,7 C 5,0 C 99 % 1011,8 hPa 0,0 l/m 0 min 0 min 0 W/m 3,2 km/h (1 Bft) 97,14 %
28.11.2022 16:28 7,6 C 6,7 C 5,0 C 99 % 1011,8 hPa 0,0 l/m 0 min 0 min 0 W/m 6,4 km/h (2 Bft) 91,49 %
28.11.2022 16:30 7,6 C 6,7 C 5,0 C 99 % 1011,8 hPa 0,0 l/m 0 min 0 min 0 W/m 6,4 km/h (2 Bft) 98,15 %
28.11.2022 16:32 7,6 C 6,7 C 5,0 C 99 % 1011,8 hPa 0,0 l/m 0 min 0 min 0 W/m 3,2 km/h (1 Bft) 98,00 %
28.11.2022 16:34 7,6 C 6,7 C 5,0 C 99 % 1011,8 hPa 0,0 l/m 0 min 0 min 0 W/m 6,4 km/h (2 Bft) 93,62 %
28.11.2022 16:36 7,6 C 6,7 C 5,0 C 99 % 1011,8 hPa 0,0 l/m 0 min 0 min 0 W/m 6,4 km/h (2 Bft) 93,75 %
28.11.2022 16:38 7,6 C 6,7 C 5,0 C 99 % 1011,8 hPa 0,0 l/m 0 min 0 min 0 W/m 3,2 km/h (1 Bft) 95,74 %
28.11.2022 16:40 7,6 C 6,7 C 5,0 C 99 % 1011,9 hPa 0,0 l/m 0 min 0 min 0 W/m 6,4 km/h (2 Bft) 95,74 %
28.11.2022 16:42 7,6 C 6,7 C 5,0 C 99 % 1011,8 hPa 0,0 l/m 0 min 0 min 0 W/m 3,2 km/h (1 Bft) 94,29 %
28.11.2022 16:44 7,6 C 6,7 C 5,0 C 99 % 1011,8 hPa 0,0 l/m 0 min 0 min 0 W/m 3,2 km/h (1 Bft) 93,62 %
28.11.2022 16:46 7,6 C 6,7 C 5,0 C 99 % 1011,8 hPa 0,0 l/m 0 min 0 min 0 W/m 3,2 km/h (1 Bft) 93,62 %
28.11.2022 16:48 7,6 C 6,7 C 5,0 C 99 % 1011,8 hPa 0,0 l/m 0 min 0 min 0 W/m 3,2 km/h (1 Bft) 94,44 %
28.11.2022 16:50 7,6 C 6,7 C 5,0 C 99 % 1011,9 hPa 0,0 l/m 0 min 0 min 0 W/m 6,4 km/h (2 Bft) 93,88 %
28.11.2022 16:52 7,6 C 6,7 C 5,0 C 99 % 1011,9 hPa 0,0 l/m 0 min 0 min 0 W/m 6,4 km/h (2 Bft) 89,36 %
28.11.2022 16:54 7,6 C 6,7 C 5,0 C 99 % 1011,8 hPa 0,0 l/m 0 min 0 min 0 W/m 3,2 km/h (1 Bft) 93,88 %
28.11.2022 16:56 7,6 C 6,7 C 5,0 C 99 % 1011,8 hPa 0,0 l/m 0 min 0 min 0 W/m 6,4 km/h (2 Bft) 89,36 %
28.11.2022 16:58 7,6 C 6,7 C 5,0 C 99 % 1011,8 hPa 0,0 l/m 0 min 0 min 0 W/m 3,2 km/h (1 Bft) 91,43 %
28.11.2022 17:00 7,6 C 6,7 C 5,0 C 99 % 1011,8 hPa 0,0 l/m 0 min 0 min 0 W/m 3,2 km/h (1 Bft) 93,48 %
28.11.2022 17:02 7,6 C 6,7 C 5,0 C 99 % 1011,8 hPa 0,0 l/m 0 min 0 min 0 W/m 6,4 km/h (2 Bft) 93,62 %
28.11.2022 17:04 7,6 C 6,7 C 5,0 C 99 % 1011,9 hPa 0,0 l/m 0 min 0 min 0 W/m 3,2 km/h (1 Bft) 91,84 %
28.11.2022 17:06 7,6 C 6,7 C 5,0 C 99 % 1012,0 hPa 0,0 l/m 0 min 0 min 0 W/m 6,4 km/h (2 Bft) 90,91 %
28.11.2022 17:08 7,6 C 7,2 C 5,0 C 99 % 1012,0 hPa 0,0 l/m 0 min 0 min 0 W/m 3,2 km/h (1 Bft) 91,49 %
28.11.2022 17:10 7,6 C 7,2 C 5,0 C 99 % 1012,0 hPa 0,0 l/m 0 min 0 min 0 W/m 3,2 km/h (1 Bft) 96,00 %
28.11.2022 17:12 7,6 C 7,2 C 5,0 C 99 % 1012,0 hPa 0,0 l/m 0 min 0 min 0 W/m 3,2 km/h (1 Bft) 95,74 %
28.11.2022 17:14 7,7 C 7,2 C 5,0 C 99 % 1012,0 hPa 0,0 l/m 0 min 0 min 0 W/m 6,4 km/h (2 Bft) 97,83 %
28.11.2022 17:16 7,7 C 7,2 C 5,0 C 99 % 1012,0 hPa 0,0 l/m 0 min 0 min 0 W/m 6,4 km/h (2 Bft) 95,74 %
28.11.2022 17:18 7,7 C 7,2 C 5,0 C 99 % 1012,0 hPa 0,0 l/m 0 min 0 min 0 W/m 3,2 km/h (1 Bft) 97,87 %
28.11.2022 17:20 7,7 C 7,2 C 5,0 C 99 % 1012,0 hPa 0,0 l/m 0 min 0 min 0 W/m 3,2 km/h (1 Bft) 94,44 %
28.11.2022 17:22 7,7 C 7,2 C 5,0 C 99 % 1012,0 hPa 0,0 l/m 0 min 0 min 0 W/m 6,4 km/h (2 Bft) 97,87 %
28.11.2022 17:24 7,7 C 7,2 C 5,0 C 99 % 1012,1 hPa 0,0 l/m 0 min 0 min 0 W/m 6,4 km/h (2 Bft) 97,83 %
28.11.2022 17:26 7,7 C 7,2 C 5,0 C 99 % 1012,1 hPa 0,0 l/m 0 min 0 min 0 W/m 6,4 km/h (2 Bft) 97,87 %
28.11.2022 17:28 7,7 C 7,2 C 5,0 C 99 % 1012,1 hPa 0,0 l/m 0 min 0 min 0 W/m 6,4 km/h (2 Bft) 100,00 %
28.11.2022 17:30 7,7 C 7,2 C 5,0 C 99 % 1012,1 hPa 0,0 l/m 0 min 0 min 0 W/m 6,4 km/h (2 Bft) 100,00 %
28.11.2022 17:32 7,7 C 7,2 C 5,0 C 99 % 1012,2 hPa 0,0 l/m 0 min 0 min 0 W/m 6,4 km/h (2 Bft) 100,00 %
28.11.2022 17:34 7,7 C 7,2 C 5,0 C 99 % 1012,2 hPa 0,0 l/m 0 min 0 min 0 W/m 3,2 km/h (1 Bft) 100,00 %
28.11.2022 17:36 7,7 C 7,2 C 5,0 C 99 % 1012,2 hPa 0,0 l/m 0 min 0 min 0 W/m 6,4 km/h (2 Bft) 100,00 %
28.11.2022 17:38 7,7 C 7,2 C 5,0 C 99 % 1012,2 hPa 0,0 l/m 0 min 0 min 0 W/m 3,2 km/h (1 Bft) 100,00 %
28.11.2022 17:40 7,7 C 7,2 C 5,0 C 99 % 1012,2 hPa 0,0 l/m 0 min 0 min 0 W/m 3,2 km/h (1 Bft) 100,00 %
28.11.2022 17:42 7,7 C 7,2 C 5,0 C 99 % 1012,2 hPa 0,0 l/m 0 min 0 min 0 W/m 3,2 km/h (1 Bft) 97,87 %
28.11.2022 17:44 7,7 C 7,2 C 5,0 C 99 % 1012,2 hPa 0,0 l/m 0 min 0 min 0 W/m 3,2 km/h (1 Bft) 100,00 %
28.11.2022 17:46 7,7 C 7,2 C 5,0 C 99 % 1012,2 hPa 0,0 l/m 0 min 0 min 0 W/m 3,2 km/h (1 Bft) 100,00 %
28.11.2022 17:48 7,7 C 7,2 C 5,0 C 99 % 1012,2 hPa 0,0 l/m 0 min 0 min 0 W/m 3,2 km/h (1 Bft) 100,00 %
28.11.2022 17:50 7,7 C 7,2 C 5,0 C 99 % 1012,2 hPa 0,0 l/m 0 min 0 min 0 W/m 3,2 km/h (1 Bft) 100,00 %
28.11.2022 17:52 7,7 C 7,2 C 5,0 C 99 % 1012,3 hPa 0,0 l/m 0 min 0 min 0 W/m 3,2 km/h (1 Bft) 97,22 %
28.11.2022 17:54 7,8 C 7,2 C 5,6 C 99 % 1012,3 hPa 0,0 l/m 0 min 0 min 0 W/m 0,0 km/h (0 Bft) 97,87 %
28.11.2022 17:56 7,7 C 7,2 C 5,6 C 99 % 1012,3 hPa 0,0 l/m 0 min 0 min 0 W/m 3,2 km/h (1 Bft) 97,87 %
28.11.2022 17:58 7,7 C 7,2 C 5,6 C 99 % 1012,3 hPa 0,0 l/m 0 min 0 min 0 W/m 0,0 km/h (0 Bft) 100,00 %
28.11.2022 18:00 7,8 C 7,2 C 5,6 C 99 % 1012,3 hPa 0,0 l/m 0 min 2 min 0 W/m 3,2 km/h (1 Bft) 100,00 %
28.11.2022 18:02 7,8 C 7,2 C 5,6 C 99 % 1012,3 hPa 0,0 l/m 0 min 0 min 0 W/m 3,2 km/h (1 Bft) 98,00 %
28.11.2022 18:04 7,8 C 7,2 C 5,6 C 99 % 1012,3 hPa 0,0 l/m 0 min 0 min 0 W/m 0,0 km/h (0 Bft) 100,00 %
28.11.2022 18:07 7,8 C 7,2 C 5,6 C 99 % 1012,3 hPa 0,0 l/m 0 min 0 min 0 W/m 6,4 km/h (2 Bft) 100,00 %
28.11.2022 18:08 7,8 C 7,2 C 5,6 C 99 % 1012,3 hPa 0,0 l/m 0 min 0 min 0 W/m 3,2 km/h (1 Bft) 100,00 %
28.11.2022 18:12 7,8 C 7,2 C 5,6 C 99 % 1012,3 hPa 0,0 l/m 0 min 0 min 0 W/m 0,0 km/h (0 Bft) 100,00 %
28.11.2022 18:14 7,8 C 7,2 C 5,6 C 99 % 1012,3 hPa 0,0 l/m 0 min 0 min 0 W/m 3,2 km/h (1 Bft) 100,00 %
28.11.2022 18:16 7,8 C 7,2 C 5,6 C 99 % 1012,3 hPa 0,0 l/m 0 min 0 min 0 W/m 0,0 km/h (0 Bft) 100,00 %
28.11.2022 18:18 7,8 C 7,2 C 5,6 C 99 % 1012,4 hPa 0,0 l/m 0 min 0 min 0 W/m 3,2 km/h (1 Bft) 100,00 %
28.11.2022 18:20 7,8 C 7,2 C 5,6 C 99 % 1012,4 hPa 0,0 l/m 0 min 0 min 0 W/m 0,0 km/h (0 Bft) 100,00 %
28.11.2022 18:22 7,8 C 7,2 C 5,6 C 99 % 1012,4 hPa 0,2 l/m 0 min 0 min 0 W/m 0,0 km/h (0 Bft) 95,65 %
28.11.2022 18:24 7,8 C 7,2 C 5,6 C 99 % 1012,5 hPa 0,0 l/m 0 min 0 min 0 W/m 0,0 km/h (0 Bft) 100,00 %
28.11.2022 18:26 7,9 C 7,2 C 5,6 C 99 % 1012,5 hPa 0,0 l/m 0 min 0 min 0 W/m 6,4 km/h (2 Bft) 100,00 %
28.11.2022 18:28 7,9 C 7,2 C 5,6 C 99 % 1012,5 hPa 0,0 l/m 0 min 2 min 0 W/m 3,2 km/h (1 Bft) 97,87 %
28.11.2022 18:30 7,9 C 7,2 C 5,6 C 99 % 1012,6 hPa 0,0 l/m 0 min 0 min 0 W/m 3,2 km/h (1 Bft) 100,00 %
28.11.2022 18:32 7,9 C 7,2 C 5,6 C 99 % 1012,6 hPa 0,0 l/m 0 min 0 min 0 W/m 3,2 km/h (1 Bft) 95,74 %
28.11.2022 18:34 7,9 C 7,2 C 5,6 C 99 % 1012,6 hPa 0,0 l/m 0 min 0 min 0 W/m 3,2 km/h (1 Bft) 95,65 %
28.11.2022 18:36 7,9 C 7,2 C 5,6 C 99 % 1012,6 hPa 0,0 l/m 0 min 0 min 0 W/m 3,2 km/h (1 Bft) 97,87 %
28.11.2022 18:38 7,9 C 7,2 C 5,6 C 99 % 1012,6 hPa 0,0 l/m 0 min 0 min 0 W/m 3,2 km/h (1 Bft) 97,87 %
28.11.2022 18:40 7,9 C 7,2 C 5,6 C 99 % 1012,6 hPa 0,0 l/m 0 min 0 min 0 W/m 3,2 km/h (1 Bft) 95,74 %
28.11.2022 18:42 7,9 C 7,2 C 5,6 C 99 % 1012,6 hPa 0,0 l/m 0 min 0 min 0 W/m 3,2 km/h (1 Bft) 97,87 %
28.11.2022 18:44 7,9 C 7,2 C 5,6 C 99 % 1012,6 hPa 0,0 l/m 0 min 0 min 0 W/m 3,2 km/h (1 Bft) 97,83 %
28.11.2022 18:46 7,9 C 7,2 C 5,6 C 99 % 1012,7 hPa 0,2 l/m 0 min 0 min 0 W/m 0,0 km/h (0 Bft) 97,87 %
28.11.2022 18:48 7,9 C 7,2 C 5,6 C 99 % 1012,7 hPa 0,0 l/m 0 min 0 min 0 W/m 3,2 km/h (1 Bft) 95,74 %
28.11.2022 18:50 8,0 C 7,2 C 5,6 C 99 % 1012,7 hPa 0,0 l/m 0 min 0 min 0 W/m 3,2 km/h (1 Bft) 97,87 %
28.11.2022 18:52 8,0 C 7,2 C 5,6 C 99 % 1012,7 hPa 0,0 l/m 0 min 0 min 0 W/m 3,2 km/h (1 Bft) 95,74 %
28.11.2022 18:54 8,0 C 7,2 C 5,6 C 99 % 1012,8 hPa 0,0 l/m 0 min 0 min 0 W/m 3,2 km/h (1 Bft) 91,49 %
28.11.2022 18:56 8,0 C 7,2 C 5,6 C 99 % 1012,8 hPa 0,0 l/m 0 min 0 min 0 W/m 3,2 km/h (1 Bft) 95,74 %
28.11.2022 18:58 8,0 C 7,2 C 5,6 C 99 % 1012,7 hPa 0,0 l/m 0 min 0 min 0 W/m 3,2 km/h (1 Bft) 97,83 %
28.11.2022 19:00 8,0 C 7,2 C 5,6 C 99 % 1012,8 hPa 0,0 l/m 0 min 0 min 0 W/m 3,2 km/h (1 Bft) 97,87 %
28.11.2022 19:02 8,1 C 7,2 C 5,6 C 99 % 1012,8 hPa 0,0 l/m 0 min 0 min 0 W/m 3,2 km/h (1 Bft) 95,74 %
28.11.2022 19:04 8,1 C 7,2 C 5,6 C 99 % 1012,7 hPa 0,0 l/m 0 min 0 min 0 W/m 3,2 km/h (1 Bft) 93,75 %
28.11.2022 19:06 8,1 C 7,2 C 5,6 C 99 % 1012,7 hPa 0,0 l/m 0 min 0 min 0 W/m 3,2 km/h (1 Bft) 97,87 %
28.11.2022 19:08 8,1 C 7,2 C 5,6 C 99 % 1012,7 hPa 0,0 l/m 0 min 0 min 0 W/m 3,2 km/h (1 Bft) 97,83 %
28.11.2022 19:10 8,1 C 7,2 C 5,6 C 99 % 1012,7 hPa 0,0 l/m 0 min 0 min 0 W/m 3,2 km/h (1 Bft) 100,00 %
28.11.2022 19:12 8,1 C 7,2 C 5,6 C 99 % 1012,8 hPa 0,0 l/m 0 min 0 min 0 W/m 3,2 km/h (1 Bft) 100,00 %
28.11.2022 19:14 8,1 C 7,2 C 5,6 C 99 % 1012,8 hPa 0,0 l/m 0 min 0 min 0 W/m 3,2 km/h (1 Bft) 95,74 %
28.11.2022 19:16 8,1 C 7,2 C 5,6 C 99 % 1012,8 hPa 0,0 l/m 0 min 0 min 0 W/m 3,2 km/h (1 Bft) 95,74 %
28.11.2022 19:18 8,1 C 7,2 C 5,6 C 99 % 1012,8 hPa 0,2 l/m 0 min 0 min 0 W/m 3,2 km/h (1 Bft) 95,74 %
28.11.2022 19:20 8,1 C 7,2 C 5,6 C 99 % 1012,8 hPa 0,0 l/m 0 min 0 min 0 W/m 3,2 km/h (1 Bft) 95,65 %
28.11.2022 19:22 8,1 C 7,2 C 5,6 C 99 % 1012,8 hPa 0,0 l/m 0 min 0 min 0 W/m 3,2 km/h (1 Bft) 95,74 %
28.11.2022 19:24 8,1 C 7,2 C 5,6 C 99 % 1012,8 hPa 0,0 l/m 0 min 0 min 0 W/m 3,2 km/h (1 Bft) 89,36 %
28.11.2022 19:26 8,1 C 7,2 C 5,6 C 99 % 1012,7 hPa 0,0 l/m 0 min 0 min 0 W/m 3,2 km/h (1 Bft) 93,62 %
28.11.2022 19:28 8,1 C 7,2 C 5,6 C 99 % 1012,7 hPa 0,0 l/m 0 min 0 min 0 W/m 3,2 km/h (1 Bft) 95,74 %
28.11.2022 19:30 8,1 C 7,2 C 5,6 C 99 % 1012,7 hPa 0,0 l/m 0 min 0 min 0 W/m 3,2 km/h (1 Bft) 93,62 %
28.11.2022 19:32 8,1 C 7,2 C 5,6 C 99 % 1012,7 hPa 0,0 l/m 0 min 0 min 0 W/m 0,0 km/h (0 Bft) 95,65 %
28.11.2022 19:34 8,1 C 7,2 C 5,6 C 99 % 1012,7 hPa 0,0 l/m 0 min 0 min 0 W/m 3,2 km/h (1 Bft) 93,62 %
28.11.2022 19:36 8,1 C 7,2 C 5,6 C 99 % 1012,7 hPa 0,0 l/m 0 min 0 min 0 W/m 0,0 km/h (0 Bft) 95,74 %
28.11.2022 19:38 8,1 C 7,2 C 5,6 C 99 % 1012,7 hPa 0,0 l/m 0 min 0 min 0 W/m 0,0 km/h (0 Bft) 95,74 %
28.11.2022 19:40 8,1 C 7,2 C 5,6 C 99 % 1012,7 hPa 0,0 l/m 0 min 0 min 0 W/m 3,2 km/h (1 Bft) 95,74 %
28.11.2022 19:42 8,1 C 7,2 C 5,6 C 99 % 1012,7 hPa 0,0 l/m 0 min 0 min 0 W/m 0,0 km/h (0 Bft) 95,65 %
28.11.2022 19:44 8,1 C 7,2 C 5,6 C 99 % 1012,7 hPa 0,0 l/m 0 min 0 min 0 W/m 0,0 km/h (0 Bft) 93,62 %
28.11.2022 19:46 8,1 C 7,2 C 5,6 C 99 % 1012,7 hPa 0,0 l/m 0 min 0 min 0 W/m 3,2 km/h (1 Bft) 95,74 %
28.11.2022 19:48 8,1 C 7,2 C 5,6 C 99 % 1012,8 hPa 0,0 l/m 0 min 0 min 0 W/m 0,0 km/h (0 Bft) 93,62 %
28.11.2022 19:50 8,1 C 7,2 C 5,6 C 99 % 1012,8 hPa 0,0 l/m 0 min 0 min 0 W/m 3,2 km/h (1 Bft) 95,74 %
28.11.2022 19:52 8,1 C 7,2 C 5,6 C 99 % 1012,8 hPa 0,0 l/m 0 min 0 min 0 W/m 0,0 km/h (0 Bft) 95,74 %
28.11.2022 19:54 8,1 C 7,2 C 5,6 C 99 % 1012,8 hPa 0,0 l/m 0 min 0 min 0 W/m 3,2 km/h (1 Bft) 97,83 %
28.11.2022 19:56 8,1 C 7,2 C 5,6 C 99 % 1012,9 hPa 0,0 l/m 0 min 0 min 0 W/m 0,0 km/h (0 Bft) 97,87 %
28.11.2022 19:58 8,1 C 7,2 C 5,6 C 99 % 1012,9 hPa 0,0 l/m 0 min 0 min 0 W/m 0,0 km/h (0 Bft) 95,74 %
28.11.2022 20:00 8,1 C 7,2 C 5,6 C 99 % 1012,9 hPa 0,0 l/m 0 min 0 min 0 W/m 0,0 km/h (0 Bft) 95,74 %
28.11.2022 20:02 8,1 C 7,2 C 5,6 C 99 % 1013,0 hPa 0,0 l/m 0 min 0 min 0 W/m 0,0 km/h (0 Bft) 97,87 %
28.11.2022 20:04 8,2 C 7,2 C 5,6 C 99 % 1013,0 hPa 0,0 l/m 0 min 0 min 0 W/m 0,0 km/h (0 Bft) 97,92 %
28.11.2022 20:06 8,1 C 7,2 C 5,6 C 99 % 1013,0 hPa 0,0 l/m 0 min 0 min 0 W/m 3,2 km/h (1 Bft) 95,74 %
28.11.2022 20:08 8,2 C 7,2 C 5,6 C 99 % 1012,9 hPa 0,0 l/m 0 min 0 min 0 W/m 3,2 km/h (1 Bft) 100,00 %
28.11.2022 20:10 8,1 C 7,2 C 5,6 C 99 % 1013,0 hPa 0,0 l/m 0 min 0 min 0 W/m 0,0 km/h (0 Bft) 100,00 %
28.11.2022 20:12 8,2 C 7,2 C 5,6 C 99 % 1013,0 hPa 0,0 l/m 0 min 0 min 0 W/m 6,4 km/h (2 Bft) 100,00 %
28.11.2022 20:14 8,2 C 7,2 C 5,6 C 99 % 1013,0 hPa 0,0 l/m 0 min 0 min 0 W/m 3,2 km/h (1 Bft) 100,00 %
28.11.2022 20:16 8,2 C 7,2 C 5,6 C 99 % 1013,0 hPa 0,0 l/m 0 min 0 min 0 W/m 6,4 km/h (2 Bft) 97,87 %
28.11.2022 20:18 8,2 C 7,2 C 5,6 C 99 % 1013,0 hPa 0,0 l/m 0 min 0 min 0 W/m 0,0 km/h (0 Bft) 100,00 %
28.11.2022 20:20 8,2 C 7,2 C 5,6 C 99 % 1013,0 hPa 0,0 l/m 0 min 0 min 0 W/m 0,0 km/h (0 Bft) 97,87 %
28.11.2022 20:22 8,2 C 7,2 C 5,6 C 99 % 1013,0 hPa 0,0 l/m 0 min 0 min 0 W/m 0,0 km/h (0 Bft) 100,00 %
28.11.2022 20:24 8,2 C 7,2 C 5,6 C 99 % 1013,0 hPa 0,0 l/m 0 min 0 min 0 W/m 0,0 km/h (0 Bft) 97,87 %
28.11.2022 20:26 8,2 C 7,2 C 5,6 C 99 % 1013,0 hPa 0,0 l/m 0 min 0 min 0 W/m 0,0 km/h (0 Bft) 97,83 %
28.11.2022 20:28 8,2 C 7,8 C 5,6 C 99 % 1013,1 hPa 0,0 l/m 0 min 0 min 0 W/m 0,0 km/h (0 Bft) 100,00 %
28.11.2022 20:30 8,2 C 7,8 C 5,6 C 99 % 1013,1 hPa 0,0 l/m 0 min 0 min 0 W/m 0,0 km/h (0 Bft) 95,74 %
28.11.2022 20:32 8,3 C 7,8 C 5,6 C 99 % 1013,1 hPa 0,0 l/m 0 min 0 min 0 W/m 0,0 km/h (0 Bft) 97,87 %
28.11.2022 20:34 8,3 C 7,8 C 5,6 C 99 % 1013,1 hPa 0,0 l/m 0 min 0 min 0 W/m 0,0 km/h (0 Bft) 97,87 %
28.11.2022 20:36 8,3 C 7,8 C 5,6 C 99 % 1013,2 hPa 0,0 l/m 0 min 0 min 0 W/m 0,0 km/h (0 Bft) 95,74 %
28.11.2022 20:38 8,3 C 7,8 C 6,1 C 99 % 1013,2 hPa 0,0 l/m 0 min 0 min 0 W/m 0,0 km/h (0 Bft) 95,65 %
28.11.2022 20:40 8,3 C 7,8 C 6,1 C 99 % 1013,2 hPa 0,0 l/m 0 min 0 min 0 W/m 0,0 km/h (0 Bft) 95,74 %
28.11.2022 20:42 8,4 C 7,8 C 6,1 C 99 % 1013,2 hPa 0,0 l/m 0 min 0 min 0 W/m 0,0 km/h (0 Bft) 95,74 %
28.11.2022 20:44 8,4 C 7,8 C 6,1 C 99 % 1013,2 hPa 0,0 l/m 0 min 0 min 0 W/m 0,0 km/h (0 Bft) 95,74 %
28.11.2022 20:46 8,4 C 7,8 C 6,1 C 99 % 1013,2 hPa 0,0 l/m 0 min 0 min 0 W/m 0,0 km/h (0 Bft) 97,87 %
28.11.2022 20:48 8,4 C 7,8 C 6,1 C 99 % 1013,2 hPa 0,0 l/m 0 min 0 min 0 W/m 3,2 km/h (1 Bft) 97,87 %
28.11.2022 20:50 8,4 C 7,8 C 6,1 C 99 % 1013,2 hPa 0,0 l/m 0 min 0 min 0 W/m 0,0 km/h (0 Bft) 97,83 %
28.11.2022 20:52 8,4 C 7,8 C 6,1 C 99 % 1013,2 hPa 0,0 l/m 0 min 0 min 0 W/m 0,0 km/h (0 Bft) 97,87 %
28.11.2022 20:54 8,4 C 7,8 C 6,1 C 99 % 1013,2 hPa 0,0 l/m 0 min 0 min 0 W/m 0,0 km/h (0 Bft) 93,62 %
28.11.2022 20:56 8,4 C 7,8 C 6,1 C 99 % 1013,2 hPa 0,0 l/m 0 min 0 min 0 W/m 0,0 km/h (0 Bft) 97,87 %
28.11.2022 20:58 8,4 C 7,8 C 6,1 C 99 % 1013,2 hPa 0,0 l/m 0 min 0 min 0 W/m 0,0 km/h (0 Bft) 97,87 %
28.11.2022 21:00 8,4 C 7,8 C 6,1 C 99 % 1013,2 hPa 0,0 l/m 0 min 0 min 0 W/m 0,0 km/h (0 Bft) 95,74 %
28.11.2022 21:02 8,4 C 7,8 C 5,6 C 99 % 1013,2 hPa 0,0 l/m 0 min 0 min 0 W/m 0,0 km/h (0 Bft) 97,83 %
28.11.2022 21:04 8,4 C 7,8 C 6,1 C 99 % 1013,3 hPa 0,0 l/m 0 min 0 min 0 W/m 0,0 km/h (0 Bft) 100,00 %
28.11.2022 21:06 8,4 C 7,8 C 5,6 C 100 % 1013,3 hPa 0,0 l/m 0 min 0 min 0 W/m 0,0 km/h (0 Bft) 100,00 %
28.11.2022 21:08 8,4 C 7,8 C 5,6 C 100 % 1013,2 hPa 0,0 l/m 0 min 0 min 0 W/m 0,0 km/h (0 Bft) 97,87 %
28.11.2022 21:10 8,4 C 7,8 C 5,6 C 99 % 1013,2 hPa 0,0 l/m 0 min 0 min 0 W/m 0,0 km/h (0 Bft) 97,87 %
28.11.2022 21:12 8,4 C 7,8 C 6,1 C 99 % 1013,3 hPa 0,0 l/m 0 min 0 min 0 W/m 0,0 km/h (0 Bft) 100,00 %
28.11.2022 21:14 8,4 C 7,8 C 5,6 C 99 % 1013,3 hPa 0,0 l/m 0 min 0 min 0 W/m 0,0 km/h (0 Bft) 97,83 %
28.11.2022 21:16 8,4 C 7,8 C 5,6 C 100 % 1013,4 hPa 0,0 l/m 0 min 0 min 0 W/m 0,0 km/h (0 Bft) 100,00 %
28.11.2022 21:18 8,4 C 7,8 C 6,1 C 100 % 1013,4 hPa 0,0 l/m 0 min 0 min 0 W/m 6,4 km/h (2 Bft) 97,87 %
28.11.2022 21:20 8,3 C 7,8 C 6,1 C 100 % 1013,4 hPa 0,0 l/m 0 min 0 min 0 W/m 6,4 km/h (2 Bft) 97,87 %
28.11.2022 21:22 8,3 C 7,8 C 6,1 C 100 % 1013,4 hPa 0,0 l/m 0 min 0 min 0 W/m 3,2 km/h (1 Bft) 100,00 %
28.11.2022 21:24 8,3 C 7,8 C 6,1 C 100 % 1013,4 hPa 0,0 l/m 0 min 0 min 0 W/m 3,2 km/h (1 Bft) 97,83 %
28.11.2022 21:26 8,3 C 7,8 C 6,1 C 100 % 1013,4 hPa 0,0 l/m 0 min 0 min 0 W/m 3,2 km/h (1 Bft) 100,00 %
28.11.2022 21:28 8,3 C 7,8 C 6,1 C 100 % 1013,4 hPa 0,0 l/m 0 min 0 min 0 W/m 0,0 km/h (0 Bft) 95,74 %
28.11.2022 21:30 8,3 C 7,8 C 6,1 C 100 % 1013,4 hPa 0,0 l/m 0 min 0 min 0 W/m 0,0 km/h (0 Bft) 97,87 %
28.11.2022 21:32 8,3 C 7,8 C 5,6 C 100 % 1013,4 hPa 0,0 l/m 0 min 0 min 0 W/m 0,0 km/h (0 Bft) 97,87 %
28.11.2022 21:34 8,3 C 7,8 C 5,6 C 100 % 1013,4 hPa 0,0 l/m 0 min 0 min 0 W/m 3,2 km/h (1 Bft) 100,00 %
28.11.2022 21:36 8,3 C 7,8 C 5,6 C 100 % 1013,4 hPa 0,0 l/m 0 min 0 min 0 W/m 3,2 km/h (1 Bft) 100,00 %
28.11.2022 21:38 8,3 C 7,8 C 5,6 C 100 % 1013,4 hPa 0,0 l/m 0 min 0 min 0 W/m 0,0 km/h (0 Bft) 100,00 %
28.11.2022 21:40 8,3 C 7,8 C 5,6 C 100 % 1013,4 hPa 0,0 l/m 0 min 0 min 0 W/m 0,0 km/h (0 Bft) 97,87 %
28.11.2022 21:42 8,3 C 7,8 C 5,6 C 100 % 1013,4 hPa 0,0 l/m 0 min 0 min 0 W/m 0,0 km/h (0 Bft) 97,87 %
28.11.2022 21:44 8,3 C 7,8 C 5,6 C 100 % 1013,5 hPa 0,0 l/m 0 min 0 min 0 W/m 0,0 km/h (0 Bft) 97,87 %
28.11.2022 21:46 8,3 C 7,8 C 5,6 C 100 % 1013,4 hPa 0,0 l/m 0 min 0 min 0 W/m 3,2 km/h (1 Bft) 97,87 %
28.11.2022 21:48 8,3 C 7,8 C 5,6 C 100 % 1013,5 hPa 0,0 l/m 0 min 0 min 0 W/m 0,0 km/h (0 Bft) 95,65 %
28.11.2022 21:50 8,3 C 7,8 C 5,6 C 100 % 1013,5 hPa 0,0 l/m 0 min 0 min 0 W/m 3,2 km/h (1 Bft) 93,62 %
28.11.2022 21:52 8,3 C 7,8 C 5,6 C 100 % 1013,5 hPa 0,0 l/m 0 min 0 min 0 W/m 0,0 km/h (0 Bft) 95,74 %
28.11.2022 21:54 8,3 C 7,8 C 5,6 C 100 % 1013,6 hPa 0,0 l/m 0 min 0 min 0 W/m 0,0 km/h (0 Bft) 97,87 %
28.11.2022 21:56 8,3 C 7,8 C 5,6 C 100 % 1013,6 hPa 0,0 l/m 0 min 0 min 0 W/m 0,0 km/h (0 Bft) 97,87 %
28.11.2022 21:58 8,3 C 7,8 C 5,6 C 100 % 1013,6 hPa 0,0 l/m 0 min 0 min 0 W/m 3,2 km/h (1 Bft) 97,87 %
28.11.2022 22:00 8,3 C 7,8 C 5,6 C 100 % 1013,6 hPa 0,0 l/m 0 min 0 min 0 W/m 0,0 km/h (0 Bft) 97,83 %
28.11.2022 22:02 8,3 C 7,8 C 5,6 C 100 % 1013,7 hPa 0,0 l/m 0 min 0 min 0 W/m 3,2 km/h (1 Bft) 95,74 %
28.11.2022 22:04 8,3 C 7,8 C 5,6 C 100 % 1013,7 hPa 0,0 l/m 0 min 0 min 0 W/m 0,0 km/h (0 Bft) 97,87 %
28.11.2022 22:06 8,3 C 7,8 C 5,6 C 100 % 1013,7 hPa 0,0 l/m 0 min 0 min 0 W/m 0,0 km/h (0 Bft) 95,74 %
28.11.2022 22:08 8,3 C 7,8 C 5,6 C 100 % 1013,6 hPa 0,0 l/m 0 min 0 min 0 W/m 0,0 km/h (0 Bft) 95,92 %
28.11.2022 22:10 8,3 C 7,8 C 5,6 C 100 % 1013,6 hPa 0,0 l/m 0 min 0 min 0 W/m 3,2 km/h (1 Bft) 95,92 %
28.11.2022 22:12 8,3 C 7,8 C 5,6 C 100 % 1013,7 hPa 0,0 l/m 0 min 0 min 0 W/m 0,0 km/h (0 Bft) 93,62 %
28.11.2022 22:14 8,3 C 7,8 C 5,6 C 100 % 1013,7 hPa 0,0 l/m 0 min 0 min 0 W/m 0,0 km/h (0 Bft) 95,74 %
28.11.2022 22:16 8,3 C 7,8 C 5,6 C 100 % 1013,6 hPa 0,0 l/m 0 min 0 min 0 W/m 0,0 km/h (0 Bft) 93,62 %
28.11.2022 22:18 8,3 C 7,8 C 5,6 C 100 % 1013,7 hPa 0,0 l/m 0 min 0 min 0 W/m 0,0 km/h (0 Bft) 95,74 %
28.11.2022 22:20 8,3 C 7,8 C 5,6 C 100 % 1013,7 hPa 0,0 l/m 0 min 0 min 0 W/m 3,2 km/h (1 Bft) 95,74 %
28.11.2022 22:24 8,2 C 7,8 C 5,6 C 100 % 1013,7 hPa 0,0 l/m 0 min 0 min 0 W/m 0,0 km/h (0 Bft) 96,70 %
28.11.2022 22:26 8,2 C 7,8 C 5,6 C 100 % 1013,7 hPa 0,0 l/m 0 min 0 min 0 W/m 3,2 km/h (1 Bft) 94,59 %
28.11.2022 22:28 8,2 C 7,8 C 5,6 C 100 % 1013,7 hPa 0,0 l/m 0 min 0 min 0 W/m 3,2 km/h (1 Bft) 97,83 %
28.11.2022 22:30 8,2 C 7,8 C 5,6 C 100 % 1013,7 hPa 0,0 l/m 0 min 0 min 0 W/m 6,4 km/h (2 Bft) 93,62 %
28.11.2022 22:35 8,2 C 7,8 C 5,6 C 99 % 1013,7 hPa 0,0 l/m 0 min 0 min 0 W/m 6,4 km/h (2 Bft) 95,59 %
28.11.2022 22:36 8,2 C 7,8 C 5,6 C 99 % 1013,7 hPa 0,0 l/m 0 min 0 min 0 W/m 3,2 km/h (1 Bft) 100,00 %
28.11.2022 22:38 8,2 C 7,8 C 5,6 C 99 % 1013,8 hPa 0,0 l/m 0 min 0 min 0 W/m 3,2 km/h (1 Bft) 97,83 %
28.11.2022 22:40 8,2 C 7,8 C 5,6 C 99 % 1013,7 hPa 0,0 l/m 0 min 0 min 0 W/m 3,2 km/h (1 Bft) 93,62 %
28.11.2022 22:42 8,2 C 7,8 C 5,6 C 99 % 1013,9 hPa 0,0 l/m 0 min 0 min 0 W/m 0,0 km/h (0 Bft) 95,74 %
28.11.2022 22:44 8,2 C 7,2 C 5,6 C 99 % 1013,9 hPa 0,0 l/m 0 min 0 min 0 W/m 3,2 km/h (1 Bft) 95,74 %
28.11.2022 22:46 8,1 C 7,8 C 5,6 C 99 % 1013,9 hPa 0,0 l/m 0 min 0 min 0 W/m 3,2 km/h (1 Bft) 95,74 %
28.11.2022 22:48 8,1 C 7,8 C 5,6 C 99 % 1013,8 hPa 0,0 l/m 0 min 0 min 0 W/m 3,2 km/h (1 Bft) 95,74 %
28.11.2022 22:50 8,1 C 7,8 C 5,6 C 99 % 1013,8 hPa 0,0 l/m 0 min 0 min 0 W/m 3,2 km/h (1 Bft) 95,65 %
28.11.2022 22:52 8,1 C 7,2 C 5,6 C 99 % 1013,9 hPa 0,0 l/m 0 min 0 min 0 W/m 3,2 km/h (1 Bft) 95,74 %
28.11.2022 22:54 8,1 C 7,8 C 5,6 C 99 % 1013,9 hPa 0,0 l/m 0 min 0 min 0 W/m 3,2 km/h (1 Bft) 93,62 %
28.11.2022 22:56 8,1 C 7,2 C 5,6 C 99 % 1013,9 hPa 0,0 l/m 0 min 0 min 0 W/m 0,0 km/h (0 Bft) 97,87 %
28.11.2022 22:58 8,1 C 7,8 C 5,6 C 99 % 1013,9 hPa 0,0 l/m 0 min 0 min 0 W/m 3,2 km/h (1 Bft) 95,74 %
28.11.2022 23:00 8,1 C 7,2 C 5,6 C 99 % 1013,9 hPa 0,0 l/m 0 min 0 min 0 W/m 3,2 km/h (1 Bft) 97,87 %
28.11.2022 23:02 8,1 C 7,2 C 5,6 C 99 % 1013,9 hPa 0,0 l/m 0 min 0 min 0 W/m 0,0 km/h (0 Bft) 95,65 %
28.11.2022 23:04 8,1 C 7,2 C 5,6 C 99 % 1013,9 hPa 0,0 l/m 0 min 0 min 0 W/m 0,0 km/h (0 Bft) 97,87 %
28.11.2022 23:06 8,1 C 7,2 C 5,6 C 99 % 1013,8 hPa 0,0 l/m 0 min 0 min 0 W/m 3,2 km/h (1 Bft) 97,87 %
28.11.2022 23:08 8,1 C 7,2 C 5,6 C 99 % 1013,8 hPa 0,0 l/m 0 min 0 min 0 W/m 3,2 km/h (1 Bft) 100,00 %
28.11.2022 23:10 8,1 C 7,8 C 5,6 C 99 % 1013,8 hPa 0,0 l/m 0 min 0 min 0 W/m 0,0 km/h (0 Bft) 97,87 %
28.11.2022 23:12 8,1 C 7,2 C 5,6 C 99 % 1013,8 hPa 0,0 l/m 0 min 0 min 0 W/m 0,0 km/h (0 Bft) 100,00 %
28.11.2022 23:14 8,1 C 7,8 C 5,6 C 100 % 1013,8 hPa 0,0 l/m 0 min 0 min 0 W/m 0,0 km/h (0 Bft) 100,00 %
28.11.2022 23:16 8,1 C 7,2 C 5,6 C 99 % 1013,9 hPa 0,0 l/m 0 min 0 min 0 W/m 0,0 km/h (0 Bft) 95,74 %
28.11.2022 23:18 8,1 C 7,2 C 5,6 C 99 % 1013,9 hPa 0,0 l/m 0 min 0 min 0 W/m 0,0 km/h (0 Bft) 100,00 %
28.11.2022 23:20 8,1 C 7,8 C 5,6 C 100 % 1013,9 hPa 0,0 l/m 0 min 0 min 0 W/m 0,0 km/h (0 Bft) 100,00 %
28.11.2022 23:22 8,1 C 7,2 C 5,6 C 100 % 1013,9 hPa 0,0 l/m 0 min 0 min 0 W/m 0,0 km/h (0 Bft) 100,00 %
28.11.2022 23:24 8,1 C 7,2 C 5,6 C 100 % 1013,9 hPa 0,0 l/m 0 min 0 min 0 W/m 0,0 km/h (0 Bft) 100,00 %
28.11.2022 23:26 8,1 C 7,2 C 5,6 C 100 % 1013,9 hPa 0,0 l/m 0 min 0 min 0 W/m 0,0 km/h (0 Bft) 100,00 %
28.11.2022 23:28 8,1 C 7,2 C 5,6 C 100 % 1014,0 hPa 0,0 l/m 0 min 0 min 0 W/m 0,0 km/h (0 Bft) 97,87 %
28.11.2022 23:30 8,1 C 7,2 C 5,6 C 100 % 1013,9 hPa 0,0 l/m 0 min 0 min 0 W/m 3,2 km/h (1 Bft) 100,00 %
28.11.2022 23:32 8,1 C 7,2 C 5,6 C 100 % 1014,0 hPa 0,0 l/m 0 min 0 min 0 W/m 3,2 km/h (1 Bft) 100,00 %
28.11.2022 23:34 8,1 C 7,2 C 5,6 C 100 % 1014,0 hPa 0,0 l/m 0 min 0 min 0 W/m 0,0 km/h (0 Bft) 97,87 %
28.11.2022 23:36 8,1 C 7,2 C 5,6 C 100 % 1014,0 hPa 0,0 l/m 0 min 0 min 0 W/m 3,2 km/h (1 Bft) 100,00 %
28.11.2022 23:38 8,1 C 7,2 C 5,6 C 100 % 1014,0 hPa 0,0 l/m 0 min 0 min 0 W/m 3,2 km/h (1 Bft) 100,00 %
28.11.2022 23:40 8,1 C 7,2 C 5,6 C 100 % 1014,0 hPa 0,0 l/m 0 min 0 min 0 W/m 0,0 km/h (0 Bft) 100,00 %
28.11.2022 23:42 8,1 C 7,2 C 5,6 C 100 % 1014,0 hPa 0,0 l/m 0 min 0 min 0 W/m 0,0 km/h (0 Bft) 100,00 %
28.11.2022 23:44 8,1 C 7,2 C 5,6 C 100 % 1014,0 hPa 0,0 l/m 0 min 0 min 0 W/m 0,0 km/h (0 Bft) 100,00 %
28.11.2022 23:46 8,1 C 7,2 C 5,6 C 100 % 1014,0 hPa 0,0 l/m 0 min 0 min 0 W/m 0,0 km/h (0 Bft) 100,00 %
28.11.2022 23:48 8,1 C 7,2 C 5,6 C 100 % 1014,1 hPa 0,0 l/m 0 min 0 min 0 W/m 0,0 km/h (0 Bft) 97,87 %
28.11.2022 23:50 8,1 C 7,2 C 5,6 C 100 % 1014,0 hPa 0,0 l/m 0 min 0 min 0 W/m 0,0 km/h (0 Bft) 100,00 %
28.11.2022 23:52 8,1 C 7,2 C 5,6 C 100 % 1014,1 hPa 0,0 l/m 0 min 0 min 0 W/m 0,0 km/h (0 Bft) 95,74 %
28.11.2022 23:54 8,1 C 7,2 C 5,6 C 100 % 1014,1 hPa 0,0 l/m 0 min 0 min 0 W/m 0,0 km/h (0 Bft) 100,00 %
28.11.2022 23:56 8,1 C 7,2 C 5,6 C 100 % 1014,2 hPa 0,0 l/m 0 min 0 min 0 W/m 0,0 km/h (0 Bft) 100,00 %
28.11.2022 23:58 8,1 C 7,2 C 5,6 C 100 % 1014,2 hPa 0,0 l/m 0 min 0 min 0 W/m 0,0 km/h (0 Bft) 97,87 %
_ Min-Zeit 06:50 00:00 00:00 00:00 07:18 - - - - 12:08 00:04
Minimum _ 6,0 C 5,6 C 2,2 C 93 % 1010,3 hPa - - - - 0,0 km/h (0 Bft) 4,76 %
_ Max-Zeit 20:42 20:28 20:38 21:06 23:56 00:08 00:00 05:13 11:28 00:32 00:10
Maximum _ 8,4 C 7,8 C 6,1 C 100 % 1014,2 hPa 0,2 l/m 0 min 5 min 84 W/m 32,2 km/h
SO (5 Bft)
100,00 %
Durchschnitt _ 7,1 C 6,4 C 4,1 C 98 % 1011,7 hPa #7,8 l/m #0 min. #8:14 h 27 W/m 8,9 km/h (2 Bft) 96,48 %
© 2022 W. Hausmann